Wetterdaten: Montag, 09.11.2015
Datum Zeit Temp. Aussen Temp. o. S. +5cm Feuchte Auss BlattFeu 1 Luftdruck Regen Sonnenschein Regendauer Solar Windben Empfang
09.11.2015 00:00 16,3 C 17,2 C 15,6 C 92 % 0 lf 1017,8 hPa 0,0 l/m 0 min 0 min 0 W/m 23,0 km/h (4 Bft) 95,74 %
09.11.2015 00:02 16,4 C 17,2 C 15,6 C 92 % 0 lf 1017,8 hPa 0,0 l/m 0 min 0 min 0 W/m 33,5 km/h (5 Bft) 97,37 %
09.11.2015 00:06 16,7 C 17,2 C 15,6 C 91 % 0 lf 1017,6 hPa 0,0 l/m 0 min 0 min 0 W/m 31,4 km/h (5 Bft) 98,94 %
09.11.2015 00:08 16,7 C 17,2 C 15,6 C 91 % 0 lf 1017,6 hPa 0,0 l/m 0 min 0 min 0 W/m 29,3 km/h (5 Bft) 100,00 %
09.11.2015 00:10 16,8 C 17,2 C 15,6 C 90 % 0 lf 1017,5 hPa 0,0 l/m 0 min 0 min 0 W/m 18,8 km/h (3 Bft) 100,00 %
09.11.2015 00:12 16,8 C 17,2 C 15,6 C 90 % 0 lf 1017,5 hPa 0,0 l/m 0 min 0 min 0 W/m 18,8 km/h (3 Bft) 98,00 %
09.11.2015 00:14 16,9 C 17,2 C 15,6 C 90 % 0 lf 1017,5 hPa 0,0 l/m 0 min 0 min 0 W/m 29,3 km/h (5 Bft) 95,65 %
09.11.2015 00:16 16,9 C 17,2 C 15,6 C 89 % 0 lf 1017,5 hPa 0,0 l/m 0 min 0 min 0 W/m 31,4 km/h (5 Bft) 95,74 %
09.11.2015 00:18 17,0 C 17,2 C 15,6 C 89 % 0 lf 1017,5 hPa 0,0 l/m 0 min 0 min 0 W/m 29,3 km/h (5 Bft) 95,74 %
09.11.2015 00:20 17,0 C 17,2 C 15,6 C 89 % 0 lf 1017,6 hPa 0,0 l/m 0 min 0 min 0 W/m 27,2 km/h (4 Bft) 97,87 %
09.11.2015 00:22 17,1 C 17,2 C 15,6 C 89 % 0 lf 1017,6 hPa 0,0 l/m 0 min 0 min 0 W/m 33,5 km/h (5 Bft) 97,87 %
09.11.2015 00:24 17,1 C 17,2 C 15,6 C 88 % 0 lf 1017,6 hPa 0,0 l/m 0 min 0 min 0 W/m 25,1 km/h (4 Bft) 93,48 %
09.11.2015 00:26 17,1 C 17,2 C 15,6 C 88 % 0 lf 1017,6 hPa 0,0 l/m 0 min 0 min 0 W/m 27,2 km/h (4 Bft) 95,74 %
09.11.2015 00:28 17,1 C 17,2 C 15,0 C 88 % 0 lf 1017,4 hPa 0,0 l/m 0 min 0 min 0 W/m 23,0 km/h (4 Bft) 95,74 %
09.11.2015 00:30 17,2 C 17,2 C 15,6 C 88 % 0 lf 1017,5 hPa 0,0 l/m 0 min 0 min 0 W/m 33,5 km/h (5 Bft) 97,87 %
09.11.2015 00:32 17,2 C 17,2 C 15,6 C 88 % 0 lf 1017,4 hPa 0,0 l/m 0 min 0 min 0 W/m 29,3 km/h (5 Bft) 97,92 %
09.11.2015 00:34 17,2 C 17,2 C 15,6 C 88 % 0 lf 1017,5 hPa 0,0 l/m 0 min 0 min 0 W/m 43,9 km/h (6 Bft) 93,48 %
09.11.2015 00:36 17,2 C 17,2 C 15,6 C 88 % 0 lf 1017,4 hPa 0,0 l/m 0 min 0 min 0 W/m 35,6 km/h (5 Bft) 95,74 %
09.11.2015 00:38 17,2 C 17,2 C 15,6 C 88 % 0 lf 1017,2 hPa 0,0 l/m 0 min 0 min 0 W/m 29,3 km/h (5 Bft) 93,62 %
09.11.2015 00:40 17,2 C 17,2 C 15,6 C 88 % 0 lf 1017,2 hPa 0,0 l/m 0 min 0 min 0 W/m 27,2 km/h (4 Bft) 95,74 %
09.11.2015 00:42 17,3 C 17,2 C 15,6 C 88 % 0 lf 1017,3 hPa 0,0 l/m 0 min 0 min 0 W/m 29,3 km/h (5 Bft) 95,74 %
09.11.2015 00:44 17,3 C 17,2 C 15,6 C 88 % 0 lf 1017,4 hPa 0,0 l/m 0 min 0 min 0 W/m 31,4 km/h (5 Bft) 97,87 %
09.11.2015 00:46 17,3 C 17,2 C 15,6 C 87 % 0 lf 1017,4 hPa 0,0 l/m 0 min 0 min 0 W/m 18,8 km/h (3 Bft) 95,65 %
09.11.2015 00:48 17,3 C 17,2 C 15,6 C 87 % 0 lf 1017,4 hPa 0,0 l/m 0 min 0 min 0 W/m 25,1 km/h (4 Bft) 97,87 %
09.11.2015 00:50 17,3 C 17,2 C 15,6 C 87 % 0 lf 1017,5 hPa 0,0 l/m 0 min 0 min 0 W/m 25,1 km/h (4 Bft) 93,62 %
09.11.2015 00:52 17,3 C 17,2 C 15,6 C 87 % 0 lf 1017,5 hPa 0,0 l/m 0 min 0 min 0 W/m 33,5 km/h (5 Bft) 97,87 %
09.11.2015 00:54 17,3 C 17,2 C 15,6 C 87 % 0 lf 1017,4 hPa 0,0 l/m 0 min 0 min 0 W/m 33,5 km/h (5 Bft) 97,87 %
09.11.2015 00:56 17,3 C 17,2 C 15,6 C 87 % 0 lf 1017,3 hPa 0,0 l/m 0 min 0 min 0 W/m 27,2 km/h (4 Bft) 95,74 %
09.11.2015 00:58 17,3 C 17,2 C 15,6 C 87 % 0 lf 1017,3 hPa 0,0 l/m 0 min 0 min 0 W/m 25,1 km/h (4 Bft) 97,83 %
09.11.2015 01:00 17,3 C 17,2 C 15,6 C 87 % 0 lf 1017,2 hPa 0,0 l/m 0 min 0 min 0 W/m 23,0 km/h (4 Bft) 97,87 %
09.11.2015 01:02 17,3 C 17,2 C 15,6 C 87 % 0 lf 1017,2 hPa 0,0 l/m 0 min 0 min 0 W/m 27,2 km/h (4 Bft) 93,62 %
09.11.2015 01:04 17,3 C 17,2 C 15,6 C 87 % 0 lf 1017,4 hPa 0,0 l/m 0 min 0 min 0 W/m 29,3 km/h (5 Bft) 95,74 %
09.11.2015 01:06 17,3 C 17,8 C 15,6 C 87 % 0 lf 1017,5 hPa 0,0 l/m 0 min 0 min 0 W/m 29,3 km/h (5 Bft) 91,49 %
09.11.2015 01:08 17,3 C 17,2 C 15,6 C 87 % 0 lf 1017,8 hPa 0,0 l/m 0 min 0 min 0 W/m 27,2 km/h (4 Bft) 93,62 %
09.11.2015 01:10 17,3 C 17,2 C 15,6 C 87 % 0 lf 1017,8 hPa 0,0 l/m 0 min 0 min 0 W/m 27,2 km/h (4 Bft) 97,83 %
09.11.2015 01:12 17,3 C 17,2 C 15,6 C 87 % 0 lf 1017,8 hPa 0,0 l/m 0 min 0 min 0 W/m 27,2 km/h (4 Bft) 97,87 %
09.11.2015 01:14 17,3 C 17,2 C 15,6 C 87 % 0 lf 1017,9 hPa 0,0 l/m 0 min 0 min 0 W/m 29,3 km/h (5 Bft) 97,87 %
09.11.2015 01:16 17,3 C 17,2 C 15,6 C 87 % 0 lf 1017,9 hPa 0,0 l/m 0 min 0 min 0 W/m 27,2 km/h (4 Bft) 97,87 %
09.11.2015 01:18 17,3 C 17,2 C 15,6 C 87 % 0 lf 1018,0 hPa 0,0 l/m 0 min 0 min 0 W/m 29,3 km/h (5 Bft) 91,49 %
09.11.2015 01:20 17,3 C 17,2 C 15,6 C 87 % 0 lf 1018,1 hPa 0,0 l/m 0 min 0 min 0 W/m 25,1 km/h (4 Bft) 95,65 %
09.11.2015 01:22 17,4 C 17,2 C 15,6 C 87 % 0 lf 1018,2 hPa 0,0 l/m 0 min 0 min 0 W/m 33,5 km/h (5 Bft) 97,62 %
09.11.2015 01:24 17,3 C 17,2 C 15,6 C 87 % 0 lf 1018,0 hPa 0,0 l/m 0 min 0 min 0 W/m 27,2 km/h (4 Bft) 93,48 %
09.11.2015 01:26 17,3 C 17,2 C 15,6 C 87 % 0 lf 1018,1 hPa 0,0 l/m 0 min 0 min 0 W/m 25,1 km/h (4 Bft) 93,62 %
09.11.2015 01:28 17,4 C 17,2 C 15,6 C 87 % 0 lf 1018,0 hPa 0,0 l/m 0 min 0 min 0 W/m 25,1 km/h (4 Bft) 95,74 %
09.11.2015 01:30 17,3 C 17,2 C 15,6 C 88 % 0 lf 1018,1 hPa 0,0 l/m 0 min 0 min 0 W/m 29,3 km/h (5 Bft) 95,74 %
09.11.2015 01:32 17,3 C 17,2 C 15,6 C 88 % 0 lf 1018,1 hPa 0,0 l/m 0 min 0 min 0 W/m 25,1 km/h (4 Bft) 92,31 %
09.11.2015 01:34 17,4 C 17,2 C 15,6 C 88 % 0 lf 1018,1 hPa 0,0 l/m 0 min 0 min 0 W/m 29,3 km/h (5 Bft) 91,49 %
09.11.2015 01:36 17,3 C 17,2 C 15,6 C 88 % 0 lf 1018,1 hPa 0,0 l/m 0 min 0 min 0 W/m 18,8 km/h (3 Bft) 91,49 %
09.11.2015 01:38 17,3 C 17,2 C 15,6 C 88 % 0 lf 1018,1 hPa 0,0 l/m 0 min 0 min 0 W/m 23,0 km/h (4 Bft) 91,49 %
09.11.2015 01:40 17,3 C 17,2 C 15,6 C 87 % 0 lf 1017,9 hPa 0,0 l/m 0 min 0 min 0 W/m 20,9 km/h (4 Bft) 93,62 %
09.11.2015 01:42 17,3 C 17,2 C 15,6 C 88 % 0 lf 1017,9 hPa 0,0 l/m 0 min 0 min 0 W/m 31,4 km/h (5 Bft) 85,71 %
09.11.2015 01:44 17,3 C 17,2 C 15,6 C 88 % 0 lf 1017,9 hPa 0,0 l/m 0 min 0 min 0 W/m 29,3 km/h (5 Bft) 91,49 %
09.11.2015 01:46 17,3 C 17,2 C 15,6 C 87 % 0 lf 1017,9 hPa 0,0 l/m 0 min 0 min 0 W/m 20,9 km/h (4 Bft) 91,49 %
09.11.2015 01:48 17,3 C 17,2 C 15,6 C 87 % 0 lf 1018,0 hPa 0,0 l/m 0 min 0 min 0 W/m 27,2 km/h (4 Bft) 93,48 %
09.11.2015 01:50 17,3 C 17,2 C 15,6 C 87 % 0 lf 1018,0 hPa 0,0 l/m 0 min 0 min 0 W/m 25,1 km/h (4 Bft) 93,62 %
09.11.2015 01:52 17,3 C 17,2 C 15,6 C 88 % 0 lf 1018,0 hPa 0,0 l/m 0 min 0 min 0 W/m 31,4 km/h (5 Bft) 93,62 %
09.11.2015 01:54 17,3 C 17,2 C 15,6 C 88 % 0 lf 1018,0 hPa 0,0 l/m 0 min 0 min 0 W/m 25,1 km/h (4 Bft) 95,74 %
09.11.2015 01:56 17,3 C 17,2 C 15,6 C 88 % 0 lf 1018,1 hPa 0,0 l/m 0 min 0 min 0 W/m 33,5 km/h (5 Bft) 93,62 %
09.11.2015 01:58 17,3 C 17,2 C 15,6 C 88 % 0 lf 1018,2 hPa 0,0 l/m 0 min 0 min 0 W/m 33,5 km/h (5 Bft) 95,74 %
09.11.2015 02:00 17,3 C 17,2 C 15,6 C 88 % 0 lf 1018,3 hPa 0,0 l/m 0 min 0 min 0 W/m 27,2 km/h (4 Bft) 97,83 %
09.11.2015 02:02 17,3 C 17,2 C 15,6 C 88 % 0 lf 1018,3 hPa 0,0 l/m 0 min 0 min 0 W/m 29,3 km/h (5 Bft) 96,36 %
09.11.2015 02:04 17,3 C 17,2 C 15,6 C 88 % 0 lf 1018,3 hPa 0,0 l/m 0 min 0 min 0 W/m 27,2 km/h (4 Bft) 95,74 %
09.11.2015 02:06 17,3 C 17,2 C 15,6 C 88 % 0 lf 1018,3 hPa 0,0 l/m 0 min 0 min 0 W/m 27,2 km/h (4 Bft) 93,62 %
09.11.2015 02:08 17,3 C 17,2 C 15,6 C 88 % 0 lf 1018,3 hPa 0,0 l/m 0 min 0 min 0 W/m 33,5 km/h (5 Bft) 97,87 %
09.11.2015 02:10 17,3 C 17,2 C 15,6 C 88 % 0 lf 1018,4 hPa 0,0 l/m 0 min 0 min 0 W/m 37,7 km/h (5 Bft) 97,87 %
09.11.2015 02:12 17,3 C 17,2 C 15,6 C 88 % 0 lf 1018,4 hPa 0,0 l/m 0 min 0 min 0 W/m 25,1 km/h (4 Bft) 95,92 %
09.11.2015 02:14 17,3 C 17,2 C 15,6 C 88 % 0 lf 1018,4 hPa 0,0 l/m 0 min 0 min 0 W/m 23,0 km/h (4 Bft) 97,87 %
09.11.2015 02:16 17,3 C 17,2 C 15,6 C 88 % 0 lf 1018,5 hPa 0,0 l/m 0 min 0 min 0 W/m 23,0 km/h (4 Bft) 95,74 %
09.11.2015 02:18 17,3 C 17,2 C 15,6 C 88 % 0 lf 1018,4 hPa 0,0 l/m 0 min 0 min 0 W/m 27,2 km/h (4 Bft) 97,87 %
09.11.2015 02:20 17,3 C 17,2 C 15,6 C 88 % 0 lf 1018,4 hPa 0,0 l/m 0 min 0 min 0 W/m 23,0 km/h (4 Bft) 95,74 %
09.11.2015 02:22 17,2 C 17,2 C 15,6 C 88 % 0 lf 1018,3 hPa 0,0 l/m 0 min 0 min 0 W/m 31,4 km/h (5 Bft) 95,65 %
09.11.2015 02:24 17,2 C 17,2 C 15,6 C 88 % 0 lf 1018,4 hPa 0,0 l/m 0 min 0 min 0 W/m 31,4 km/h (5 Bft) 95,74 %
09.11.2015 02:26 17,2 C 17,2 C 15,6 C 88 % 0 lf 1018,4 hPa 0,0 l/m 0 min 0 min 0 W/m 31,4 km/h (5 Bft) 97,87 %
09.11.2015 02:28 17,2 C 17,2 C 15,6 C 88 % 1 lf 1018,4 hPa 0,0 l/m 0 min 0 min 0 W/m 23,0 km/h (4 Bft) 97,87 %
09.11.2015 02:30 17,2 C 17,2 C 15,6 C 88 % 0 lf 1018,5 hPa 0,0 l/m 0 min 0 min 0 W/m 27,2 km/h (4 Bft) 100,00 %
09.11.2015 02:32 17,2 C 17,2 C 15,6 C 88 % 0 lf 1018,5 hPa 0,0 l/m 0 min 0 min 0 W/m 29,3 km/h (5 Bft) 100,00 %
09.11.2015 02:34 17,2 C 17,2 C 15,6 C 88 % 4 lf 1018,5 hPa 0,0 l/m 0 min 2 min 0 W/m 35,6 km/h (5 Bft) 97,87 %
09.11.2015 02:36 17,2 C 17,2 C 15,6 C 88 % 2 lf 1018,5 hPa 0,0 l/m 0 min 2 min 0 W/m 25,1 km/h (4 Bft) 95,74 %
09.11.2015 02:38 17,2 C 17,2 C 15,0 C 88 % 3 lf 1018,5 hPa 0,0 l/m 0 min 0 min 0 W/m 29,3 km/h (5 Bft) 100,00 %
09.11.2015 02:40 17,2 C 17,2 C 15,0 C 88 % 13 lf 1018,5 hPa 0,0 l/m 0 min 2 min 0 W/m 27,2 km/h (4 Bft) 100,00 %
09.11.2015 02:42 17,2 C 16,7 C 15,0 C 88 % 15 lf 1018,5 hPa 0,0 l/m 0 min 2 min 0 W/m 29,3 km/h (5 Bft) 100,00 %
09.11.2015 02:44 17,2 C 16,7 C 14,4 C 88 % 15 lf 1018,5 hPa 0,0 l/m 0 min 2 min 0 W/m 25,1 km/h (4 Bft) 95,74 %
09.11.2015 02:46 17,2 C 16,1 C 14,4 C 88 % 15 lf 1018,5 hPa 0,0 l/m 0 min 2 min 0 W/m 23,0 km/h (4 Bft) 95,74 %
09.11.2015 02:48 17,2 C 15,6 C 13,9 C 88 % 15 lf 1018,5 hPa 0,0 l/m 0 min 2 min 0 W/m 25,1 km/h (4 Bft) 100,00 %
09.11.2015 02:50 17,1 C 15,6 C 13,9 C 88 % 15 lf 1018,5 hPa 0,2 l/m 0 min 2 min 0 W/m 27,2 km/h (4 Bft) 100,00 %
09.11.2015 02:52 17,1 C 15,6 C 13,9 C 89 % 15 lf 1018,4 hPa 0,0 l/m 0 min 2 min 0 W/m 18,8 km/h (3 Bft) 100,00 %
09.11.2015 02:54 17,1 C 15,6 C 13,9 C 89 % 15 lf 1018,5 hPa 0,0 l/m 0 min 2 min 0 W/m 27,2 km/h (4 Bft) 97,83 %
09.11.2015 02:56 17,0 C 15,6 C 13,9 C 89 % 15 lf 1018,5 hPa 0,0 l/m 0 min 2 min 0 W/m 23,0 km/h (4 Bft) 97,87 %
09.11.2015 02:58 16,9 C 15,6 C 13,9 C 89 % 15 lf 1018,5 hPa 0,0 l/m 0 min 2 min 0 W/m 27,2 km/h (4 Bft) 97,87 %
09.11.2015 03:00 16,9 C 15,6 C 13,9 C 90 % 15 lf 1018,4 hPa 0,0 l/m 0 min 2 min 0 W/m 25,1 km/h (4 Bft) 97,87 %
09.11.2015 03:02 16,8 C 15,6 C 13,9 C 90 % 15 lf 1018,5 hPa 0,0 l/m 0 min 2 min 0 W/m 16,7 km/h (3 Bft) 100,00 %
09.11.2015 03:04 16,8 C 15,6 C 13,9 C 90 % 15 lf 1018,5 hPa 0,0 l/m 0 min 2 min 0 W/m 18,8 km/h (3 Bft) 100,00 %
09.11.2015 03:06 16,8 C 15,6 C 13,9 C 90 % 15 lf 1018,5 hPa 0,2 l/m 0 min 2 min 0 W/m 25,1 km/h (4 Bft) 94,29 %
09.11.2015 03:08 16,7 C 15,6 C 13,9 C 90 % 15 lf 1018,4 hPa 0,0 l/m 0 min 2 min 0 W/m 23,0 km/h (4 Bft) 97,87 %
09.11.2015 03:10 16,7 C 15,0 C 13,9 C 91 % 15 lf 1018,4 hPa 0,0 l/m 0 min 2 min 0 W/m 23,0 km/h (4 Bft) 100,00 %
09.11.2015 03:12 16,6 C 15,0 C 13,9 C 91 % 15 lf 1018,5 hPa 0,0 l/m 0 min 2 min 0 W/m 18,8 km/h (3 Bft) 100,00 %
09.11.2015 03:14 16,6 C 15,0 C 13,9 C 91 % 15 lf 1018,3 hPa 0,0 l/m 0 min 2 min 0 W/m 16,7 km/h (3 Bft) 96,61 %
09.11.2015 03:16 16,6 C 15,0 C 13,9 C 91 % 15 lf 1018,4 hPa 0,0 l/m 0 min 2 min 0 W/m 18,8 km/h (3 Bft) 94,29 %
09.11.2015 03:18 16,5 C 15,0 C 13,9 C 91 % 15 lf 1018,3 hPa 0,2 l/m 0 min 2 min 0 W/m 16,7 km/h (3 Bft) 95,74 %
09.11.2015 03:20 16,5 C 15,0 C 13,9 C 91 % 15 lf 1018,0 hPa 0,0 l/m 0 min 2 min 0 W/m 18,8 km/h (3 Bft) 94,83 %
09.11.2015 03:22 16,4 C 15,6 C 13,9 C 92 % 15 lf 1018,2 hPa 0,0 l/m 0 min 0 min 0 W/m 20,9 km/h (4 Bft) 94,29 %
09.11.2015 03:24 16,4 C 15,6 C 13,9 C 92 % 15 lf 1018,2 hPa 0,0 l/m 0 min 0 min 0 W/m 23,0 km/h (4 Bft) 93,62 %
09.11.2015 03:26 16,4 C 15,0 C 13,9 C 92 % 15 lf 1018,3 hPa 0,0 l/m 0 min 2 min 0 W/m 16,7 km/h (3 Bft) 95,74 %
09.11.2015 03:28 16,3 C 15,0 C 13,9 C 92 % 15 lf 1018,5 hPa 0,0 l/m 0 min 2 min 0 W/m 20,9 km/h (4 Bft) 93,62 %
09.11.2015 03:30 16,3 C 15,0 C 13,9 C 92 % 15 lf 1018,5 hPa 0,0 l/m 0 min 2 min 0 W/m 31,4 km/h (5 Bft) 95,74 %
09.11.2015 03:32 16,3 C 15,0 C 13,9 C 92 % 15 lf 1018,5 hPa 0,0 l/m 0 min 2 min 0 W/m 20,9 km/h (4 Bft) 94,44 %
09.11.2015 03:34 16,3 C 15,0 C 13,9 C 92 % 15 lf 1018,5 hPa 0,0 l/m 0 min 2 min 0 W/m 20,9 km/h (4 Bft) 95,65 %
09.11.2015 03:36 16,2 C 15,0 C 13,9 C 93 % 15 lf 1018,5 hPa 0,0 l/m 0 min 2 min 0 W/m 23,0 km/h (4 Bft) 95,74 %
09.11.2015 03:38 16,2 C 15,0 C 13,9 C 93 % 15 lf 1018,5 hPa 0,0 l/m 0 min 2 min 0 W/m 18,8 km/h (3 Bft) 93,62 %
09.11.2015 03:40 16,2 C 15,0 C 13,9 C 93 % 15 lf 1018,4 hPa 0,2 l/m 0 min 2 min 0 W/m 27,2 km/h (4 Bft) 95,74 %
09.11.2015 03:42 16,2 C 15,0 C 13,9 C 93 % 15 lf 1018,3 hPa 0,0 l/m 0 min 2 min 0 W/m 25,1 km/h (4 Bft) 97,87 %
09.11.2015 03:44 16,2 C 15,0 C 13,9 C 93 % 15 lf 1018,4 hPa 0,0 l/m 0 min 2 min 0 W/m 23,0 km/h (4 Bft) 93,62 %
09.11.2015 03:46 16,1 C 15,0 C 13,9 C 93 % 15 lf 1018,3 hPa 0,0 l/m 0 min 2 min 0 W/m 25,1 km/h (4 Bft) 91,30 %
09.11.2015 03:48 16,1 C 15,0 C 13,9 C 93 % 15 lf 1018,5 hPa 0,0 l/m 0 min 2 min 0 W/m 23,0 km/h (4 Bft) 93,62 %
09.11.2015 03:50 16,1 C 15,0 C 13,9 C 93 % 15 lf 1018,5 hPa 0,0 l/m 0 min 2 min 0 W/m 29,3 km/h (5 Bft) 95,74 %
09.11.2015 03:52 16,1 C 15,0 C 13,9 C 93 % 15 lf 1018,5 hPa 0,0 l/m 0 min 2 min 0 W/m 29,3 km/h (5 Bft) 97,87 %
09.11.2015 03:54 16,1 C 15,0 C 13,9 C 94 % 15 lf 1018,5 hPa 0,0 l/m 0 min 2 min 0 W/m 20,9 km/h (4 Bft) 93,62 %
09.11.2015 03:56 16,0 C 15,0 C 13,9 C 94 % 15 lf 1018,5 hPa 0,2 l/m 0 min 2 min 0 W/m 23,0 km/h (4 Bft) 93,48 %
09.11.2015 03:58 16,0 C 15,0 C 13,9 C 94 % 15 lf 1018,5 hPa 0,0 l/m 0 min 2 min 0 W/m 27,2 km/h (4 Bft) 89,36 %
09.11.2015 04:00 16,0 C 15,0 C 13,9 C 94 % 15 lf 1018,3 hPa 0,0 l/m 0 min 2 min 0 W/m 27,2 km/h (4 Bft) 89,36 %
09.11.2015 04:02 15,9 C 15,0 C 13,9 C 94 % 15 lf 1018,4 hPa 0,0 l/m 0 min 2 min 0 W/m 23,0 km/h (4 Bft) 94,12 %
09.11.2015 04:04 15,9 C 15,0 C 13,9 C 94 % 15 lf 1018,4 hPa 0,0 l/m 0 min 2 min 0 W/m 27,2 km/h (4 Bft) 97,87 %
09.11.2015 04:06 15,9 C 15,0 C 13,9 C 94 % 15 lf 1018,4 hPa 0,0 l/m 0 min 0 min 0 W/m 27,2 km/h (4 Bft) 97,87 %
09.11.2015 04:08 15,9 C 15,0 C 13,9 C 94 % 15 lf 1018,4 hPa 0,0 l/m 0 min 0 min 0 W/m 25,1 km/h (4 Bft) 97,83 %
09.11.2015 04:10 15,9 C 15,0 C 13,9 C 94 % 15 lf 1018,5 hPa 0,0 l/m 0 min 0 min 0 W/m 29,3 km/h (5 Bft) 100,00 %
09.11.2015 04:12 15,9 C 15,0 C 13,9 C 94 % 15 lf 1018,5 hPa 0,0 l/m 0 min 0 min 0 W/m 23,0 km/h (4 Bft) 93,88 %
09.11.2015 04:14 15,8 C 15,0 C 13,9 C 94 % 15 lf 1018,6 hPa 0,0 l/m 0 min 0 min 0 W/m 27,2 km/h (4 Bft) 95,74 %
09.11.2015 04:16 15,8 C 15,0 C 13,3 C 94 % 15 lf 1018,6 hPa 0,0 l/m 0 min 0 min 0 W/m 27,2 km/h (4 Bft) 95,65 %
09.11.2015 04:18 15,8 C 15,0 C 13,3 C 94 % 15 lf 1018,6 hPa 0,0 l/m 0 min 0 min 0 W/m 25,1 km/h (4 Bft) 97,87 %
09.11.2015 04:20 15,8 C 15,0 C 13,3 C 94 % 15 lf 1018,5 hPa 0,0 l/m 0 min 0 min 0 W/m 23,0 km/h (4 Bft) 97,87 %
09.11.2015 04:22 15,8 C 15,0 C 13,3 C 95 % 15 lf 1018,7 hPa 0,0 l/m 0 min 0 min 0 W/m 23,0 km/h (4 Bft) 95,74 %
09.11.2015 04:24 15,8 C 15,0 C 13,3 C 95 % 15 lf 1018,6 hPa 0,0 l/m 0 min 0 min 0 W/m 23,0 km/h (4 Bft) 97,87 %
09.11.2015 04:26 15,8 C 15,0 C 13,9 C 95 % 15 lf 1018,6 hPa 0,0 l/m 0 min 0 min 0 W/m 27,2 km/h (4 Bft) 97,87 %
09.11.2015 04:28 15,7 C 15,0 C 13,9 C 95 % 15 lf 1018,7 hPa 0,0 l/m 0 min 0 min 0 W/m 27,2 km/h (4 Bft) 93,48 %
09.11.2015 04:30 15,7 C 15,0 C 13,9 C 95 % 15 lf 1018,7 hPa 0,0 l/m 0 min 0 min 0 W/m 29,3 km/h (5 Bft) 95,74 %
09.11.2015 04:32 15,7 C 15,0 C 13,9 C 95 % 15 lf 1018,7 hPa 0,0 l/m 0 min 0 min 0 W/m 27,2 km/h (4 Bft) 95,74 %
09.11.2015 04:34 15,7 C 15,0 C 13,9 C 95 % 15 lf 1018,7 hPa 0,0 l/m 0 min 0 min 0 W/m 27,2 km/h (4 Bft) 97,87 %
09.11.2015 04:36 15,7 C 15,0 C 13,9 C 95 % 15 lf 1018,7 hPa 0,0 l/m 0 min 0 min 0 W/m 25,1 km/h (4 Bft) 95,74 %
09.11.2015 04:38 15,7 C 15,0 C 13,9 C 95 % 15 lf 1018,8 hPa 0,0 l/m 0 min 0 min 0 W/m 31,4 km/h (5 Bft) 95,74 %
09.11.2015 04:40 15,7 C 15,0 C 13,9 C 95 % 15 lf 1018,7 hPa 0,0 l/m 0 min 2 min 0 W/m 33,5 km/h (5 Bft) 97,83 %
09.11.2015 04:42 15,7 C 15,0 C 13,9 C 95 % 15 lf 1018,8 hPa 0,0 l/m 0 min 2 min 0 W/m 20,9 km/h (4 Bft) 100,00 %
09.11.2015 04:44 15,7 C 15,0 C 13,9 C 95 % 15 lf 1018,9 hPa 0,2 l/m 0 min 2 min 0 W/m 23,0 km/h (4 Bft) 100,00 %
09.11.2015 04:46 15,7 C 15,0 C 13,9 C 95 % 15 lf 1018,9 hPa 0,0 l/m 0 min 2 min 0 W/m 27,2 km/h (4 Bft) 95,74 %
09.11.2015 04:48 15,7 C 15,0 C 13,9 C 95 % 15 lf 1019,0 hPa 0,0 l/m 0 min 0 min 0 W/m 25,1 km/h (4 Bft) 97,87 %
09.11.2015 04:50 15,7 C 15,0 C 13,9 C 95 % 15 lf 1018,9 hPa 0,0 l/m 0 min 0 min 0 W/m 27,2 km/h (4 Bft) 100,00 %
09.11.2015 04:52 15,7 C 15,0 C 13,9 C 95 % 15 lf 1019,0 hPa 0,0 l/m 0 min 0 min 0 W/m 27,2 km/h (4 Bft) 97,87 %
09.11.2015 04:54 15,7 C 15,0 C 13,9 C 95 % 15 lf 1019,0 hPa 0,0 l/m 0 min 2 min 0 W/m 31,4 km/h (5 Bft) 93,48 %
09.11.2015 04:56 15,7 C 15,0 C 13,9 C 95 % 15 lf 1019,1 hPa 0,0 l/m 0 min 0 min 0 W/m 20,9 km/h (4 Bft) 100,00 %
09.11.2015 04:58 15,7 C 15,0 C 13,9 C 96 % 15 lf 1019,1 hPa 0,0 l/m 0 min 0 min 0 W/m 23,0 km/h (4 Bft) 100,00 %
09.11.2015 05:00 15,7 C 15,0 C 13,9 C 96 % 15 lf 1019,1 hPa 0,0 l/m 0 min 0 min 0 W/m 25,1 km/h (4 Bft) 100,00 %
09.11.2015 05:02 15,7 C 15,0 C 13,9 C 96 % 15 lf 1019,1 hPa 0,0 l/m 0 min 2 min 0 W/m 18,8 km/h (3 Bft) 97,87 %
09.11.2015 05:04 15,7 C 15,0 C 13,3 C 96 % 15 lf 1019,2 hPa 0,0 l/m 0 min 2 min 0 W/m 29,3 km/h (5 Bft) 100,00 %
09.11.2015 05:06 15,6 C 15,0 C 13,3 C 96 % 15 lf 1019,2 hPa 0,0 l/m 0 min 2 min 0 W/m 35,6 km/h (5 Bft) 100,00 %
09.11.2015 05:08 15,6 C 15,0 C 13,3 C 96 % 15 lf 1019,2 hPa 0,0 l/m 0 min 2 min 0 W/m 31,4 km/h (5 Bft) 98,31 %
09.11.2015 05:10 15,6 C 15,0 C 13,3 C 96 % 15 lf 1019,1 hPa 0,0 l/m 0 min 2 min 0 W/m 25,1 km/h (4 Bft) 100,00 %
09.11.2015 05:12 15,6 C 15,0 C 13,3 C 96 % 15 lf 1019,1 hPa 0,0 l/m 0 min 2 min 0 W/m 25,1 km/h (4 Bft) 95,74 %
09.11.2015 05:14 15,6 C 15,0 C 13,3 C 95 % 15 lf 1019,2 hPa 0,0 l/m 0 min 2 min 0 W/m 20,9 km/h (4 Bft) 97,87 %
09.11.2015 05:16 15,6 C 15,0 C 13,3 C 95 % 15 lf 1019,2 hPa 0,0 l/m 0 min 0 min 0 W/m 25,1 km/h (4 Bft) 95,74 %
09.11.2015 05:18 15,6 C 15,0 C 13,3 C 95 % 15 lf 1019,1 hPa 0,0 l/m 0 min 0 min 0 W/m 16,7 km/h (3 Bft) 95,65 %
09.11.2015 05:20 15,6 C 15,0 C 13,3 C 95 % 15 lf 1019,3 hPa 0,0 l/m 0 min 0 min 0 W/m 18,8 km/h (3 Bft) 93,62 %
09.11.2015 05:22 15,6 C 15,0 C 13,3 C 95 % 15 lf 1019,3 hPa 0,0 l/m 0 min 0 min 0 W/m 20,9 km/h (4 Bft) 95,65 %
09.11.2015 05:24 15,6 C 15,0 C 13,3 C 95 % 15 lf 1019,4 hPa 0,0 l/m 0 min 0 min 0 W/m 20,9 km/h (4 Bft) 95,74 %
09.11.2015 05:26 15,6 C 15,0 C 13,3 C 96 % 15 lf 1019,3 hPa 0,0 l/m 0 min 0 min 0 W/m 18,8 km/h (3 Bft) 95,74 %
09.11.2015 05:28 15,6 C 15,0 C 13,3 C 96 % 15 lf 1019,4 hPa 0,0 l/m 0 min 0 min 0 W/m 27,2 km/h (4 Bft) 95,74 %
09.11.2015 05:30 15,6 C 15,0 C 13,3 C 96 % 15 lf 1019,4 hPa 0,0 l/m 0 min 0 min 0 W/m 18,8 km/h (3 Bft) 93,48 %
09.11.2015 05:32 15,6 C 15,0 C 13,3 C 96 % 15 lf 1019,4 hPa 0,0 l/m 0 min 0 min 0 W/m 12,6 km/h (3 Bft) 96,30 %
09.11.2015 05:34 15,5 C 15,0 C 13,3 C 96 % 15 lf 1019,4 hPa 0,0 l/m 0 min 0 min 0 W/m 16,7 km/h (3 Bft) 93,62 %
09.11.2015 05:36 15,5 C 15,0 C 13,3 C 96 % 15 lf 1019,4 hPa 0,0 l/m 0 min 0 min 0 W/m 25,1 km/h (4 Bft) 95,74 %
09.11.2015 05:38 15,5 C 15,0 C 13,3 C 96 % 15 lf 1019,4 hPa 0,0 l/m 0 min 0 min 0 W/m 18,8 km/h (3 Bft) 95,74 %
09.11.2015 05:40 15,5 C 15,0 C 13,3 C 96 % 15 lf 1019,4 hPa 0,0 l/m 0 min 0 min 0 W/m 20,9 km/h (4 Bft) 93,62 %
09.11.2015 05:42 15,4 C 15,0 C 13,3 C 96 % 15 lf 1019,5 hPa 0,0 l/m 0 min 0 min 0 W/m 23,0 km/h (4 Bft) 93,62 %
09.11.2015 05:44 15,4 C 15,0 C 13,3 C 96 % 15 lf 1019,4 hPa 0,0 l/m 0 min 0 min 0 W/m 14,6 km/h (3 Bft) 93,62 %
09.11.2015 05:46 15,4 C 15,0 C 13,3 C 96 % 15 lf 1019,4 hPa 0,0 l/m 0 min 0 min 0 W/m 16,7 km/h (3 Bft) 93,62 %
09.11.2015 05:48 15,4 C 15,0 C 13,3 C 96 % 15 lf 1019,4 hPa 0,0 l/m 0 min 0 min 0 W/m 14,6 km/h (3 Bft) 95,74 %
09.11.2015 05:50 15,4 C 15,0 C 13,3 C 96 % 15 lf 1019,5 hPa 0,0 l/m 0 min 0 min 0 W/m 16,7 km/h (3 Bft) 97,87 %
09.11.2015 05:52 15,4 C 14,4 C 13,3 C 96 % 15 lf 1019,4 hPa 0,0 l/m 0 min 0 min 0 W/m 25,1 km/h (4 Bft) 91,49 %
09.11.2015 05:54 15,4 C 14,4 C 13,3 C 96 % 15 lf 1019,5 hPa 0,0 l/m 0 min 0 min 0 W/m 14,6 km/h (3 Bft) 95,65 %
09.11.2015 05:56 15,3 C 14,4 C 13,3 C 96 % 15 lf 1019,6 hPa 0,0 l/m 0 min 0 min 0 W/m 18,8 km/h (3 Bft) 97,87 %
09.11.2015 05:58 15,3 C 14,4 C 13,3 C 96 % 15 lf 1019,6 hPa 0,0 l/m 0 min 0 min 0 W/m 14,6 km/h (3 Bft) 95,74 %
09.11.2015 06:00 15,3 C 14,4 C 13,3 C 96 % 15 lf 1019,7 hPa 0,0 l/m 0 min 0 min 0 W/m 20,9 km/h (4 Bft) 97,87 %
09.11.2015 06:02 15,3 C 14,4 C 13,3 C 96 % 15 lf 1019,7 hPa 0,0 l/m 0 min 0 min 0 W/m 16,7 km/h (3 Bft) 90,00 %
09.11.2015 06:04 15,3 C 14,4 C 13,3 C 95 % 15 lf 1019,8 hPa 0,0 l/m 0 min 0 min 0 W/m 12,6 km/h (3 Bft) 95,74 %
09.11.2015 06:06 15,3 C 14,4 C 13,3 C 95 % 15 lf 1019,8 hPa 0,0 l/m 0 min 0 min 0 W/m 12,6 km/h (3 Bft) 95,74 %
09.11.2015 06:08 15,3 C 14,4 C 13,3 C 95 % 15 lf 1019,9 hPa 0,0 l/m 0 min 0 min 0 W/m 14,6 km/h (3 Bft) 97,87 %
09.11.2015 06:10 15,2 C 14,4 C 13,3 C 95 % 15 lf 1019,9 hPa 0,0 l/m 0 min 0 min 0 W/m 12,6 km/h (3 Bft) 93,62 %
09.11.2015 06:12 15,2 C 14,4 C 13,3 C 95 % 15 lf 1019,9 hPa 0,0 l/m 0 min 0 min 0 W/m 16,7 km/h (3 Bft) 95,65 %
09.11.2015 06:14 15,2 C 14,4 C 13,3 C 95 % 15 lf 1019,9 hPa 0,0 l/m 0 min 0 min 0 W/m 16,7 km/h (3 Bft) 93,62 %
09.11.2015 06:16 15,2 C 14,4 C 13,3 C 95 % 15 lf 1019,9 hPa 0,0 l/m 0 min 0 min 0 W/m 12,6 km/h (3 Bft) 95,74 %
09.11.2015 06:18 15,2 C 14,4 C 13,3 C 95 % 15 lf 1019,9 hPa 0,0 l/m 0 min 2 min 0 W/m 12,6 km/h (3 Bft) 97,87 %
09.11.2015 06:20 15,2 C 14,4 C 13,3 C 95 % 15 lf 1020,0 hPa 0,0 l/m 0 min 2 min 0 W/m 14,6 km/h (3 Bft) 95,74 %
09.11.2015 06:22 15,2 C 14,4 C 13,3 C 95 % 15 lf 1020,0 hPa 0,0 l/m 0 min 0 min 0 W/m 20,9 km/h (4 Bft) 97,87 %
09.11.2015 06:24 15,2 C 14,4 C 13,3 C 95 % 15 lf 1020,0 hPa 0,0 l/m 0 min 0 min 0 W/m 14,6 km/h (3 Bft) 97,83 %
09.11.2015 06:26 15,2 C 14,4 C 13,3 C 95 % 15 lf 1020,0 hPa 0,0 l/m 0 min 0 min 0 W/m 18,8 km/h (3 Bft) 95,74 %
09.11.2015 06:28 15,2 C 14,4 C 13,3 C 95 % 15 lf 1019,9 hPa 0,0 l/m 0 min 0 min 0 W/m 16,7 km/h (3 Bft) 95,74 %
09.11.2015 06:30 15,2 C 14,4 C 12,8 C 95 % 15 lf 1020,0 hPa 0,0 l/m 0 min 0 min 0 W/m 25,1 km/h (4 Bft) 95,74 %
09.11.2015 06:32 15,2 C 14,4 C 12,8 C 95 % 15 lf 1020,0 hPa 0,0 l/m 0 min 2 min 0 W/m 20,9 km/h (4 Bft) 97,14 %
09.11.2015 06:34 15,2 C 14,4 C 12,8 C 95 % 15 lf 1019,9 hPa 0,0 l/m 0 min 0 min 0 W/m 14,6 km/h (3 Bft) 97,87 %
09.11.2015 06:36 15,1 C 14,4 C 12,8 C 95 % 15 lf 1019,8 hPa 0,0 l/m 0 min 0 min 0 W/m 16,7 km/h (3 Bft) 95,74 %
09.11.2015 06:38 15,1 C 14,4 C 12,8 C 95 % 15 lf 1019,8 hPa 0,0 l/m 0 min 0 min 0 W/m 14,6 km/h (3 Bft) 97,87 %
09.11.2015 06:40 15,1 C 14,4 C 12,8 C 95 % 15 lf 1019,8 hPa 0,0 l/m 0 min 0 min 0 W/m 14,6 km/h (3 Bft) 93,62 %
09.11.2015 06:42 15,0 C 13,9 C 12,2 C 95 % 15 lf 1019,8 hPa 0,0 l/m 0 min 0 min 0 W/m 18,8 km/h (3 Bft) 98,11 %
09.11.2015 06:44 15,0 C 13,9 C 12,2 C 95 % 15 lf 1019,9 hPa 0,0 l/m 0 min 0 min 0 W/m 18,8 km/h (3 Bft) 97,87 %
09.11.2015 06:46 14,9 C 13,9 C 12,2 C 95 % 15 lf 1019,9 hPa 0,0 l/m 0 min 0 min 0 W/m 10,5 km/h (2 Bft) 97,87 %
09.11.2015 06:48 14,9 C 13,9 C 12,2 C 95 % 15 lf 1020,0 hPa 0,0 l/m 0 min 0 min 0 W/m 14,6 km/h (3 Bft) 93,62 %
09.11.2015 06:50 14,9 C 13,9 C 12,2 C 95 % 15 lf 1020,0 hPa 0,0 l/m 0 min 0 min 0 W/m 14,6 km/h (3 Bft) 95,74 %
09.11.2015 06:52 14,8 C 13,9 C 12,2 C 94 % 15 lf 1020,0 hPa 0,0 l/m 0 min 0 min 0 W/m 16,7 km/h (3 Bft) 93,48 %
09.11.2015 06:54 14,8 C 13,9 C 12,2 C 94 % 15 lf 1020,0 hPa 0,0 l/m 0 min 0 min 0 W/m 12,6 km/h (3 Bft) 95,74 %
09.11.2015 06:56 14,8 C 14,4 C 12,8 C 94 % 15 lf 1020,0 hPa 0,0 l/m 0 min 0 min 0 W/m 14,6 km/h (3 Bft) 97,87 %
09.11.2015 06:58 14,8 C 14,4 C 12,8 C 94 % 14 lf 1020,1 hPa 0,0 l/m 0 min 0 min 0 W/m 10,5 km/h (2 Bft) 93,62 %
09.11.2015 07:00 14,8 C 14,4 C 12,8 C 94 % 14 lf 1020,0 hPa 0,0 l/m 0 min 0 min 0 W/m 12,6 km/h (3 Bft) 95,74 %
09.11.2015 07:02 14,8 C 13,9 C 12,8 C 94 % 14 lf 1020,0 hPa 0,0 l/m 0 min 0 min 0 W/m 12,6 km/h (3 Bft) 98,00 %
09.11.2015 07:04 14,8 C 14,4 C 12,8 C 94 % 14 lf 1020,0 hPa 0,0 l/m 0 min 0 min 0 W/m 14,6 km/h (3 Bft) 97,83 %
09.11.2015 07:06 14,8 C 14,4 C 12,8 C 94 % 14 lf 1020,1 hPa 0,0 l/m 0 min 0 min 0 W/m 16,7 km/h (3 Bft) 97,87 %
09.11.2015 07:08 14,8 C 14,4 C 12,8 C 94 % 13 lf 1020,0 hPa 0,0 l/m 0 min 0 min 0 W/m 12,6 km/h (3 Bft) 93,62 %
09.11.2015 07:10 14,8 C 14,4 C 12,8 C 94 % 13 lf 1020,1 hPa 0,0 l/m 0 min 0 min 0 W/m 14,6 km/h (3 Bft) 93,62 %
09.11.2015 07:12 14,8 C 13,9 C 12,8 C 94 % 12 lf 1020,1 hPa 0,0 l/m 0 min 0 min 0 W/m 14,6 km/h (3 Bft) 93,62 %
09.11.2015 07:14 14,8 C 14,4 C 12,8 C 94 % 12 lf 1020,2 hPa 0,0 l/m 0 min 0 min 0 W/m 20,9 km/h (4 Bft) 95,65 %
09.11.2015 07:16 14,8 C 14,4 C 12,8 C 94 % 12 lf 1020,1 hPa 0,0 l/m 0 min 0 min 0 W/m 18,8 km/h (3 Bft) 95,74 %
09.11.2015 07:18 14,8 C 14,4 C 12,8 C 94 % 11 lf 1020,1 hPa 0,0 l/m 0 min 0 min 0 W/m 20,9 km/h (4 Bft) 91,49 %
09.11.2015 07:20 14,8 C 13,9 C 12,2 C 94 % 11 lf 1020,1 hPa 0,0 l/m 0 min 0 min 0 W/m 18,8 km/h (3 Bft) 95,74 %
09.11.2015 07:22 14,7 C 13,9 C 12,2 C 94 % 11 lf 1020,0 hPa 0,0 l/m 0 min 0 min 0 W/m 20,9 km/h (4 Bft) 93,62 %
09.11.2015 07:24 14,7 C 13,9 C 12,2 C 94 % 10 lf 1020,0 hPa 0,0 l/m 0 min 0 min 0 W/m 14,6 km/h (3 Bft) 93,62 %
09.11.2015 07:26 14,7 C 13,9 C 12,2 C 94 % 9 lf 1020,1 hPa 0,0 l/m 0 min 0 min 0 W/m 20,9 km/h (4 Bft) 95,65 %
09.11.2015 07:28 14,7 C 13,9 C 12,2 C 94 % 7 lf 1020,0 hPa 0,0 l/m 0 min 0 min 0 W/m 25,1 km/h (4 Bft) 93,62 %
09.11.2015 07:30 14,7 C 13,9 C 12,2 C 94 % 5 lf 1020,2 hPa 0,0 l/m 0 min 0 min 0 W/m 23,0 km/h (4 Bft) 95,74 %
09.11.2015 07:32 14,6 C 13,9 C 12,2 C 94 % 4 lf 1020,3 hPa 0,0 l/m 0 min 0 min 0 W/m 18,8 km/h (3 Bft) 95,83 %
09.11.2015 07:34 14,6 C 13,9 C 12,2 C 94 % 3 lf 1020,2 hPa 0,0 l/m 0 min 0 min 0 W/m 20,9 km/h (4 Bft) 93,62 %
09.11.2015 07:36 14,6 C 13,9 C 12,2 C 94 % 3 lf 1020,3 hPa 0,0 l/m 0 min 0 min 0 W/m 18,8 km/h (3 Bft) 93,62 %
09.11.2015 07:38 14,6 C 13,9 C 12,2 C 94 % 3 lf 1020,4 hPa 0,0 l/m 0 min 0 min 0 W/m 18,8 km/h (3 Bft) 91,30 %
09.11.2015 07:40 14,6 C 13,9 C 12,2 C 94 % 2 lf 1020,5 hPa 0,0 l/m 0 min 0 min 5 W/m 10,5 km/h (2 Bft) 95,74 %
09.11.2015 07:42 14,6 C 13,9 C 12,2 C 94 % 2 lf 1020,5 hPa 0,0 l/m 0 min 0 min 5 W/m 12,6 km/h (3 Bft) 100,00 %
09.11.2015 07:44 14,6 C 13,9 C 12,2 C 94 % 1 lf 1020,5 hPa 0,0 l/m 0 min 0 min 5 W/m 14,6 km/h (3 Bft) 97,87 %
09.11.2015 07:46 14,6 C 14,4 C 12,2 C 94 % 1 lf 1020,5 hPa 0,0 l/m 0 min 0 min 5 W/m 18,8 km/h (3 Bft) 100,00 %
09.11.2015 07:48 14,6 C 14,4 C 12,2 C 94 % 1 lf 1020,5 hPa 0,0 l/m 0 min 0 min 6 W/m 14,6 km/h (3 Bft) 97,87 %
09.11.2015 07:50 14,6 C 14,4 C 12,2 C 93 % 1 lf 1020,6 hPa 0,0 l/m 0 min 0 min 7 W/m 23,0 km/h (4 Bft) 100,00 %
09.11.2015 07:52 14,5 C 14,4 C 12,2 C 93 % 1 lf 1020,7 hPa 0,0 l/m 0 min 0 min 9 W/m 18,8 km/h (3 Bft) 97,87 %
09.11.2015 07:54 14,5 C 14,4 C 12,2 C 93 % 1 lf 1020,6 hPa 0,0 l/m 0 min 0 min 9 W/m 29,3 km/h (5 Bft) 97,87 %
09.11.2015 07:56 14,5 C 14,4 C 12,2 C 93 % 1 lf 1020,6 hPa 0,0 l/m 0 min 0 min 11 W/m 23,0 km/h (4 Bft) 100,00 %
09.11.2015 07:58 14,5 C 14,4 C 12,2 C 93 % 1 lf 1020,5 hPa 0,0 l/m 0 min 0 min 11 W/m 25,1 km/h (4 Bft) 97,87 %
09.11.2015 08:00 14,4 C 14,4 C 12,2 C 93 % 1 lf 1020,3 hPa 0,0 l/m 0 min 0 min 12 W/m 25,1 km/h (4 Bft) 100,00 %
09.11.2015 08:02 14,4 C 14,4 C 12,2 C 93 % 1 lf 1020,4 hPa 0,0 l/m 0 min 0 min 12 W/m 27,2 km/h (4 Bft) 100,00 %
09.11.2015 08:04 14,4 C 14,4 C 12,2 C 93 % 1 lf 1020,4 hPa 0,0 l/m 0 min 0 min 14 W/m 25,1 km/h (4 Bft) 100,00 %
09.11.2015 08:06 14,4 C 14,4 C 11,7 C 93 % 1 lf 1020,3 hPa 0,0 l/m 0 min 0 min 16 W/m 29,3 km/h (5 Bft) 100,00 %
09.11.2015 08:08 14,3 C 14,4 C 11,7 C 92 % 1 lf 1020,3 hPa 0,0 l/m 0 min 0 min 18 W/m 31,4 km/h (5 Bft) 93,62 %
09.11.2015 08:10 14,3 C 14,4 C 11,7 C 92 % 0 lf 1020,4 hPa 0,0 l/m 0 min 0 min 23 W/m 31,4 km/h (5 Bft) 100,00 %
09.11.2015 08:12 14,3 C 14,4 C 11,7 C 92 % 0 lf 1020,3 hPa 0,0 l/m 0 min 0 min 27 W/m 23,0 km/h (4 Bft) 100,00 %
09.11.2015 08:14 14,3 C 14,4 C 11,7 C 92 % 0 lf 1020,4 hPa 0,0 l/m 2 min 0 min 34 W/m 27,2 km/h (4 Bft) 100,00 %
09.11.2015 08:16 14,3 C 14,4 C 11,7 C 92 % 0 lf 1020,3 hPa 0,0 l/m 2 min 0 min 40 W/m 23,0 km/h (4 Bft) 100,00 %
09.11.2015 08:18 14,3 C 14,4 C 11,7 C 91 % 0 lf 1020,4 hPa 0,0 l/m 2 min 0 min 51 W/m 25,1 km/h (4 Bft) 97,87 %
09.11.2015 08:20 14,3 C 15,0 C 12,2 C 91 % 0 lf 1020,5 hPa 0,0 l/m 2 min 0 min 56 W/m 23,0 km/h (4 Bft) 100,00 %
09.11.2015 08:22 14,3 C 15,0 C 12,2 C 91 % 0 lf 1020,5 hPa 0,0 l/m 2 min 0 min 56 W/m 27,2 km/h (4 Bft) 100,00 %
09.11.2015 08:24 14,3 C 15,0 C 12,2 C 91 % 0 lf 1020,5 hPa 0,0 l/m 2 min 0 min 71 W/m 18,8 km/h (3 Bft) 100,00 %
09.11.2015 08:26 14,3 C 15,0 C 12,2 C 91 % 0 lf 1020,6 hPa 0,0 l/m 2 min 0 min 91 W/m 20,9 km/h (4 Bft) 100,00 %
09.11.2015 08:28 14,3 C 15,0 C 12,2 C 91 % 0 lf 1020,7 hPa 0,0 l/m 2 min 0 min 80 W/m 18,8 km/h (3 Bft) 100,00 %
09.11.2015 08:30 14,4 C 15,0 C 12,2 C 91 % 0 lf 1020,7 hPa 0,0 l/m 2 min 0 min 87 W/m 20,9 km/h (4 Bft) 100,00 %
09.11.2015 08:32 14,4 C 15,0 C 12,2 C 91 % 0 lf 1020,8 hPa 0,0 l/m 2 min 0 min 78 W/m 14,6 km/h (3 Bft) 95,74 %
09.11.2015 08:34 14,4 C 15,0 C 12,2 C 91 % 0 lf 1020,9 hPa 0,0 l/m 2 min 0 min 75 W/m 25,1 km/h (4 Bft) 100,00 %
09.11.2015 08:36 14,4 C 15,0 C 12,2 C 91 % 0 lf 1020,9 hPa 0,0 l/m 2 min 0 min 77 W/m 23,0 km/h (4 Bft) 95,74 %
09.11.2015 08:38 14,5 C 15,0 C 12,2 C 91 % 0 lf 1020,9 hPa 0,0 l/m 2 min 0 min 70 W/m 23,0 km/h (4 Bft) 100,00 %
09.11.2015 08:40 14,5 C 15,0 C 12,2 C 91 % 0 lf 1021,1 hPa 0,0 l/m 2 min 0 min 63 W/m 23,0 km/h (4 Bft) 97,87 %
09.11.2015 08:42 14,5 C 15,0 C 12,2 C 91 % 0 lf 1021,1 hPa 0,0 l/m 0 min 0 min 48 W/m 18,8 km/h (3 Bft) 95,74 %
09.11.2015 08:44 14,6 C 15,0 C 12,2 C 91 % 0 lf 1021,1 hPa 0,0 l/m 0 min 0 min 37 W/m 31,4 km/h (5 Bft) 95,74 %
09.11.2015 08:46 14,6 C 15,0 C 12,2 C 91 % 0 lf 1021,0 hPa 0,0 l/m 0 min 0 min 43 W/m 31,4 km/h (5 Bft) 100,00 %
09.11.2015 08:48 14,6 C 15,0 C 12,2 C 91 % 0 lf 1021,1 hPa 0,0 l/m 0 min 0 min 38 W/m 25,1 km/h (4 Bft) 97,87 %
09.11.2015 08:50 14,6 C 15,0 C 12,2 C 90 % 0 lf 1021,2 hPa 0,0 l/m 0 min 0 min 56 W/m 25,1 km/h (4 Bft) 95,65 %
09.11.2015 08:52 14,5 C 15,0 C 12,2 C 90 % 0 lf 1021,2 hPa 0,0 l/m 2 min 0 min 82 W/m 25,1 km/h (4 Bft) 100,00 %
09.11.2015 08:54 14,5 C 15,0 C 12,2 C 90 % 0 lf 1021,2 hPa 0,0 l/m 2 min 0 min 82 W/m 27,2 km/h (4 Bft) 100,00 %
09.11.2015 08:56 14,5 C 15,0 C 12,2 C 90 % 0 lf 1021,3 hPa 0,0 l/m 2 min 0 min 105 W/m 27,2 km/h (4 Bft) 95,74 %
09.11.2015 08:58 14,5 C 15,0 C 12,2 C 90 % 0 lf 1021,3 hPa 0,0 l/m 2 min 0 min 116 W/m 27,2 km/h (4 Bft) 95,74 %
09.11.2015 09:00 14,5 C 15,0 C 12,2 C 90 % 0 lf 1021,4 hPa 0,0 l/m 2 min 0 min 124 W/m 33,5 km/h (5 Bft) 89,13 %
09.11.2015 09:02 14,5 C 15,0 C 12,2 C 90 % 0 lf 1021,4 hPa 0,0 l/m 2 min 0 min 126 W/m 23,0 km/h (4 Bft) 95,74 %
09.11.2015 09:04 14,5 C 15,0 C 12,2 C 89 % 0 lf 1021,4 hPa 0,0 l/m 2 min 0 min 134 W/m 20,9 km/h (4 Bft) 95,74 %
09.11.2015 09:06 14,5 C 15,6 C 12,2 C 89 % 0 lf 1021,5 hPa 0,0 l/m 2 min 0 min 150 W/m 16,7 km/h (3 Bft) 91,49 %
09.11.2015 09:08 14,5 C 15,6 C 12,2 C 89 % 0 lf 1021,6 hPa 0,0 l/m 2 min 0 min 158 W/m 20,9 km/h (4 Bft) 93,62 %
09.11.2015 09:10 14,6 C 15,6 C 12,2 C 89 % 0 lf 1021,5 hPa 0,0 l/m 2 min 0 min 168 W/m 16,7 km/h (3 Bft) 93,62 %
09.11.2015 09:12 14,6 C 16,1 C 12,2 C 89 % 0 lf 1021,5 hPa 0,0 l/m 2 min 0 min 186 W/m 25,1 km/h (4 Bft) 93,48 %
09.11.2015 09:14 14,6 C 16,1 C 12,2 C 89 % 0 lf 1021,6 hPa 0,0 l/m 2 min 0 min 199 W/m 25,1 km/h (4 Bft) 93,62 %
09.11.2015 09:16 14,6 C 16,1 C 12,2 C 89 % 0 lf 1021,7 hPa 0,0 l/m 2 min 0 min 103 W/m 23,0 km/h (4 Bft) 91,49 %
09.11.2015 09:18 14,7 C 15,6 C 12,2 C 89 % 0 lf 1021,8 hPa 0,0 l/m 0 min 0 min 92 W/m 25,1 km/h (4 Bft) 85,11 %
09.11.2015 09:20 14,7 C 16,1 C 12,2 C 89 % 0 lf 1021,8 hPa 0,0 l/m 2 min 0 min 186 W/m 23,0 km/h (4 Bft) 91,49 %
09.11.2015 09:22 14,7 C 16,1 C 12,2 C 89 % 0 lf 1021,9 hPa 0,0 l/m 2 min 0 min 179 W/m 23,0 km/h (4 Bft) 95,74 %
09.11.2015 09:24 14,7 C 16,7 C 12,8 C 89 % 0 lf 1021,9 hPa 0,0 l/m 2 min 0 min 238 W/m 23,0 km/h (4 Bft) 93,48 %
09.11.2015 09:26 14,8 C 16,7 C 12,8 C 89 % 0 lf 1021,9 hPa 0,0 l/m 2 min 0 min 233 W/m 27,2 km/h (4 Bft) 91,49 %
09.11.2015 09:28 14,9 C 16,7 C 12,8 C 89 % 0 lf 1021,9 hPa 0,0 l/m 2 min 0 min 123 W/m 27,2 km/h (4 Bft) 93,62 %
09.11.2015 09:30 14,9 C 16,7 C 12,8 C 89 % 0 lf 1021,9 hPa 0,0 l/m 2 min 0 min 113 W/m 33,5 km/h (5 Bft) 93,62 %
09.11.2015 09:32 14,9 C 16,7 C 12,8 C 89 % 0 lf 1022,0 hPa 0,0 l/m 2 min 0 min 112 W/m 37,7 km/h (5 Bft) 89,36 %
09.11.2015 09:34 14,9 C 16,1 C 12,8 C 88 % 0 lf 1022,0 hPa 0,0 l/m 2 min 0 min 195 W/m 35,6 km/h (5 Bft) 89,36 %
09.11.2015 09:36 14,9 C 16,1 C 12,8 C 88 % 0 lf 1022,0 hPa 0,0 l/m 2 min 0 min 188 W/m 33,5 km/h (5 Bft) 91,30 %
09.11.2015 09:38 14,9 C 15,6 C 12,8 C 88 % 0 lf 1022,0 hPa 0,0 l/m 0 min 0 min 55 W/m 31,4 km/h (5 Bft) 93,62 %
09.11.2015 09:40 14,9 C 15,6 C 12,8 C 87 % 0 lf 1022,2 hPa 0,0 l/m 0 min 0 min 78 W/m 37,7 km/h (5 Bft) 95,74 %
09.11.2015 09:42 14,9 C 15,6 C 12,8 C 86 % 0 lf 1022,3 hPa 0,0 l/m 0 min 0 min 84 W/m 33,5 km/h (5 Bft) 91,49 %
09.11.2015 09:44 14,9 C 15,6 C 12,8 C 86 % 0 lf 1022,3 hPa 0,0 l/m 0 min 0 min 89 W/m 39,7 km/h (6 Bft) 87,23 %
09.11.2015 09:46 14,8 C 16,1 C 12,8 C 85 % 0 lf 1022,1 hPa 0,0 l/m 2 min 0 min 131 W/m 43,9 km/h (6 Bft) 91,67 %
09.11.2015 09:48 14,8 C 16,1 C 12,8 C 85 % 0 lf 1022,3 hPa 0,0 l/m 2 min 0 min 146 W/m 31,4 km/h (5 Bft) 95,74 %
09.11.2015 09:50 14,8 C 16,1 C 12,8 C 85 % 0 lf 1022,1 hPa 0,0 l/m 0 min 0 min 110 W/m 50,2 km/h (7 Bft) 93,62 %
09.11.2015 09:52 14,8 C 15,6 C 12,8 C 84 % 0 lf 1022,1 hPa 0,0 l/m 0 min 0 min 100 W/m 31,4 km/h (5 Bft) 91,49 %
09.11.2015 09:54 14,9 C 15,6 C 12,8 C 84 % 0 lf 1022,1 hPa 0,0 l/m 0 min 0 min 68 W/m 25,1 km/h (4 Bft) 93,62 %
09.11.2015 09:56 14,9 C 15,6 C 12,8 C 84 % 0 lf 1022,1 hPa 0,0 l/m 0 min 0 min 74 W/m 25,1 km/h (4 Bft) 95,65 %
09.11.2015 09:58 14,9 C 15,6 C 12,8 C 84 % 0 lf 1022,2 hPa 0,0 l/m 0 min 0 min 90 W/m 27,2 km/h (4 Bft) 95,74 %
09.11.2015 10:00 14,9 C 16,1 C 12,8 C 84 % 0 lf 1022,2 hPa 0,0 l/m 0 min 0 min 79 W/m 33,5 km/h (5 Bft) 93,62 %
09.11.2015 10:02 14,9 C 16,1 C 12,8 C 84 % 0 lf 1022,2 hPa 0,0 l/m 0 min 0 min 101 W/m 27,2 km/h (4 Bft) 91,49 %
09.11.2015 10:04 14,9 C 15,6 C 12,8 C 84 % 0 lf 1022,2 hPa 0,0 l/m 0 min 0 min 128 W/m 41,8 km/h (6 Bft) 95,74 %
09.11.2015 10:06 14,9 C 16,1 C 12,8 C 84 % 0 lf 1022,4 hPa 0,0 l/m 0 min 0 min 124 W/m 43,9 km/h (6 Bft) 97,87 %
09.11.2015 10:08 14,9 C 16,1 C 12,8 C 84 % 0 lf 1022,3 hPa 0,0 l/m 0 min 0 min 99 W/m 31,4 km/h (5 Bft) 95,65 %
09.11.2015 10:10 14,8 C 15,6 C 12,8 C 84 % 0 lf 1022,3 hPa 0,0 l/m 0 min 0 min 104 W/m 46,0 km/h (6 Bft) 97,87 %
09.11.2015 10:12 14,8 C 15,6 C 12,8 C 83 % 0 lf 1022,2 hPa 0,0 l/m 0 min 0 min 100 W/m 50,2 km/h (7 Bft) 97,14 %
09.11.2015 10:14 14,8 C 15,6 C 12,8 C 82 % 0 lf 1022,4 hPa 0,0 l/m 0 min 0 min 126 W/m 54,4 km/h (7 Bft) 93,62 %
09.11.2015 10:16 14,8 C 16,1 C 12,8 C 82 % 0 lf 1022,3 hPa 0,0 l/m 0 min 0 min 135 W/m 48,1 km/h (6 Bft) 95,74 %
09.11.2015 10:18 14,8 C 16,1 C 13,3 C 82 % 0 lf 1022,5 hPa 0,0 l/m 2 min 0 min 153 W/m 41,8 km/h (6 Bft) 97,87 %
09.11.2015 10:20 14,8 C 16,1 C 13,3 C 82 % 0 lf 1022,4 hPa 0,0 l/m 0 min 0 min 141 W/m 31,4 km/h (5 Bft) 97,87 %
09.11.2015 10:22 14,8 C 16,1 C 13,3 C 82 % 0 lf 1022,4 hPa 0,0 l/m 2 min 0 min 175 W/m 23,0 km/h (4 Bft) 95,65 %
09.11.2015 10:24 14,8 C 16,7 C 13,3 C 82 % 0 lf 1022,5 hPa 0,0 l/m 2 min 0 min 171 W/m 35,6 km/h (5 Bft) 95,74 %
09.11.2015 10:26 14,8 C 16,7 C 13,3 C 82 % 0 lf 1022,4 hPa 0,0 l/m 2 min 0 min 163 W/m 37,7 km/h (5 Bft) 95,74 %
09.11.2015 10:28 14,8 C 16,1 C 13,3 C 82 % 0 lf 1022,4 hPa 0,0 l/m 0 min 0 min 137 W/m 29,3 km/h (5 Bft) 97,87 %
09.11.2015 10:30 14,8 C 16,1 C 12,8 C 82 % 0 lf 1022,2 hPa 0,0 l/m 0 min 0 min 112 W/m 39,7 km/h (6 Bft) 93,62 %
09.11.2015 10:32 14,8 C 15,6 C 12,8 C 81 % 0 lf 1022,4 hPa 0,0 l/m 0 min 0 min 109 W/m 33,5 km/h (5 Bft) 95,74 %
09.11.2015 10:34 14,8 C 15,6 C 12,8 C 81 % 0 lf 1022,5 hPa 0,0 l/m 0 min 0 min 108 W/m 43,9 km/h (6 Bft) 100,00 %
09.11.2015 10:36 14,8 C 15,6 C 12,8 C 81 % 0 lf 1022,5 hPa 0,0 l/m 0 min 0 min 122 W/m 33,5 km/h (5 Bft) 97,87 %
09.11.2015 10:38 14,8 C 15,6 C 12,8 C 82 % 0 lf 1022,5 hPa 0,0 l/m 0 min 0 min 130 W/m 20,9 km/h (4 Bft) 95,74 %
09.11.2015 10:40 14,8 C 15,6 C 12,8 C 82 % 0 lf 1022,5 hPa 0,0 l/m 0 min 0 min 134 W/m 35,6 km/h (5 Bft) 100,00 %
09.11.2015 10:42 14,8 C 16,7 C 13,3 C 82 % 0 lf 1022,6 hPa 0,0 l/m 2 min 0 min 242 W/m 27,2 km/h (4 Bft) 95,74 %
09.11.2015 10:44 14,8 C 16,7 C 13,3 C 82 % 0 lf 1022,6 hPa 0,0 l/m 2 min 0 min 189 W/m 31,4 km/h (5 Bft) 97,87 %
09.11.2015 10:46 14,8 C 16,7 C 13,9 C 82 % 0 lf 1022,5 hPa 0,0 l/m 2 min 0 min 196 W/m 33,5 km/h (5 Bft) 100,00 %
09.11.2015 10:48 14,8 C 16,7 C 13,9 C 82 % 0 lf 1022,5 hPa 0,0 l/m 2 min 0 min 179 W/m 37,7 km/h (5 Bft) 100,00 %
09.11.2015 10:50 14,9 C 16,7 C 13,9 C 82 % 0 lf 1022,5 hPa 0,0 l/m 0 min 0 min 157 W/m 31,4 km/h (5 Bft) 100,00 %
09.11.2015 10:52 14,9 C 16,7 C 13,9 C 82 % 0 lf 1022,5 hPa 0,0 l/m 2 min 0 min 172 W/m 18,8 km/h (3 Bft) 97,87 %
09.11.2015 10:54 14,9 C 16,7 C 13,9 C 82 % 0 lf 1022,4 hPa 0,0 l/m 0 min 0 min 155 W/m 23,0 km/h (4 Bft) 95,74 %
09.11.2015 10:56 14,9 C 16,7 C 13,9 C 82 % 0 lf 1022,5 hPa 0,0 l/m 0 min 0 min 159 W/m 29,3 km/h (5 Bft) 100,00 %
09.11.2015 10:58 14,9 C 16,7 C 13,9 C 81 % 0 lf 1022,3 hPa 0,0 l/m 0 min 0 min 168 W/m 39,7 km/h (6 Bft) 100,00 %
09.11.2015 11:00 15,0 C 16,7 C 14,4 C 81 % 0 lf 1022,4 hPa 0,0 l/m 2 min 0 min 173 W/m 37,7 km/h (5 Bft) 97,87 %
09.11.2015 11:02 15,1 C 16,7 C 14,4 C 81 % 0 lf 1022,4 hPa 0,0 l/m 0 min 0 min 161 W/m 39,7 km/h (6 Bft) 100,00 %
09.11.2015 11:04 15,1 C 16,1 C 13,9 C 81 % 0 lf 1022,4 hPa 0,0 l/m 0 min 0 min 149 W/m 37,7 km/h (5 Bft) 95,74 %
09.11.2015 11:06 15,1 C 16,1 C 13,9 C 81 % 0 lf 1022,4 hPa 0,0 l/m 0 min 0 min 146 W/m 37,7 km/h (5 Bft) 100,00 %
09.11.2015 11:08 15,1 C 16,1 C 13,9 C 81 % 0 lf 1022,5 hPa 0,0 l/m 0 min 0 min 148 W/m 33,5 km/h (5 Bft) 93,62 %
09.11.2015 11:10 15,1 C 16,1 C 13,9 C 81 % 0 lf 1022,5 hPa 0,0 l/m 0 min 0 min 143 W/m 35,6 km/h (5 Bft) 97,83 %
09.11.2015 11:12 15,1 C 16,1 C 13,9 C 81 % 0 lf 1022,6 hPa 0,0 l/m 0 min 0 min 152 W/m 29,3 km/h (5 Bft) 97,87 %
09.11.2015 11:14 15,2 C 16,1 C 13,9 C 81 % 0 lf 1022,5 hPa 0,0 l/m 0 min 0 min 162 W/m 23,0 km/h (4 Bft) 97,87 %
09.11.2015 11:16 15,2 C 16,1 C 13,9 C 81 % 0 lf 1022,6 hPa 0,0 l/m 0 min 0 min 160 W/m 43,9 km/h (6 Bft) 93,62 %
09.11.2015 11:18 15,1 C 16,1 C 13,9 C 81 % 0 lf 1022,5 hPa 0,0 l/m 0 min 0 min 150 W/m 33,5 km/h (5 Bft) 97,87 %
09.11.2015 11:20 15,2 C 16,1 C 13,9 C 81 % 0 lf 1022,5 hPa 0,0 l/m 0 min 0 min 156 W/m 35,6 km/h (5 Bft) 97,87 %
09.11.2015 11:22 15,2 C 16,1 C 13,9 C 81 % 0 lf 1022,4 hPa 0,0 l/m 0 min 0 min 157 W/m 29,3 km/h (5 Bft) 95,65 %
09.11.2015 11:24 15,2 C 16,1 C 13,9 C 81 % 0 lf 1022,4 hPa 0,0 l/m 0 min 0 min 158 W/m 41,8 km/h (6 Bft) 97,87 %
09.11.2015 11:26 15,2 C 16,1 C 13,9 C 81 % 0 lf 1022,5 hPa 0,0 l/m 0 min 0 min 149 W/m 27,2 km/h (4 Bft) 93,62 %
09.11.2015 11:28 15,2 C 16,1 C 13,9 C 81 % 0 lf 1022,5 hPa 0,0 l/m 0 min 0 min 155 W/m 39,7 km/h (6 Bft) 97,87 %
09.11.2015 11:30 15,1 C 16,1 C 13,9 C 81 % 0 lf 1022,5 hPa 0,0 l/m 0 min 0 min 156 W/m 31,4 km/h (5 Bft) 97,87 %
09.11.2015 11:32 15,1 C 15,6 C 13,9 C 81 % 0 lf 1022,4 hPa 0,0 l/m 0 min 0 min 148 W/m 37,7 km/h (5 Bft) 95,65 %
09.11.2015 11:34 15,1 C 15,6 C 13,9 C 80 % 0 lf 1022,5 hPa 0,0 l/m 0 min 0 min 145 W/m 41,8 km/h (6 Bft) 91,49 %
09.11.2015 11:36 15,1 C 15,6 C 13,9 C 80 % 0 lf 1022,5 hPa 0,0 l/m 0 min 0 min 152 W/m 35,6 km/h (5 Bft) 96,61 %
09.11.2015 11:38 15,1 C 15,6 C 13,9 C 80 % 0 lf 1022,5 hPa 0,0 l/m 0 min 0 min 146 W/m 37,7 km/h (5 Bft) 97,14 %
09.11.2015 11:40 15,1 C 15,6 C 13,9 C 80 % 0 lf 1022,5 hPa 0,0 l/m 0 min 0 min 146 W/m 39,7 km/h (6 Bft) 100,00 %
09.11.2015 11:42 15,0 C 15,6 C 13,9 C 79 % 0 lf 1022,5 hPa 0,0 l/m 0 min 0 min 148 W/m 46,0 km/h (6 Bft) 95,74 %
09.11.2015 11:44 15,0 C 15,6 C 13,9 C 78 % 0 lf 1022,5 hPa 0,0 l/m 0 min 0 min 146 W/m 46,0 km/h (6 Bft) 100,00 %
09.11.2015 11:46 15,0 C 15,6 C 13,9 C 78 % 0 lf 1022,5 hPa 0,0 l/m 0 min 0 min 142 W/m 25,1 km/h (4 Bft) 97,87 %
09.11.2015 11:48 15,0 C 15,6 C 13,9 C 79 % 0 lf 1022,5 hPa 0,0 l/m 0 min 0 min 137 W/m 27,2 km/h (4 Bft) 100,00 %
09.11.2015 11:50 15,0 C 15,6 C 13,9 C 79 % 0 lf 1022,6 hPa 0,0 l/m 0 min 0 min 147 W/m 37,7 km/h (5 Bft) 100,00 %
09.11.2015 11:52 15,0 C 15,6 C 13,9 C 79 % 0 lf 1022,6 hPa 0,0 l/m 0 min 0 min 131 W/m 31,4 km/h (5 Bft) 100,00 %
09.11.2015 11:54 15,0 C 15,6 C 13,9 C 79 % 0 lf 1022,6 hPa 0,0 l/m 0 min 0 min 103 W/m 35,6 km/h (5 Bft) 97,87 %
09.11.2015 11:56 15,0 C 15,6 C 13,9 C 79 % 0 lf 1022,6 hPa 0,0 l/m 0 min 0 min 93 W/m 25,1 km/h (4 Bft) 95,65 %
09.11.2015 11:58 14,9 C 15,6 C 13,9 C 79 % 0 lf 1022,7 hPa 0,0 l/m 0 min 0 min 95 W/m 23,0 km/h (4 Bft) 95,74 %
09.11.2015 12:00 14,9 C 15,6 C 13,9 C 79 % 0 lf 1022,6 hPa 0,0 l/m 0 min 0 min 85 W/m 31,4 km/h (5 Bft) 97,87 %
09.11.2015 12:02 14,9 C 15,6 C 13,9 C 79 % 0 lf 1022,7 hPa 0,0 l/m 0 min 0 min 98 W/m 33,5 km/h (5 Bft) 97,87 %
09.11.2015 12:04 14,9 C 15,6 C 13,9 C 79 % 0 lf 1022,7 hPa 0,0 l/m 0 min 0 min 110 W/m 29,3 km/h (5 Bft) 95,74 %
09.11.2015 12:06 14,9 C 15,6 C 13,9 C 79 % 0 lf 1022,6 hPa 0,0 l/m 0 min 0 min 125 W/m 25,1 km/h (4 Bft) 93,62 %
09.11.2015 12:08 14,9 C 15,6 C 13,9 C 79 % 0 lf 1022,6 hPa 0,0 l/m 0 min 0 min 130 W/m 23,0 km/h (4 Bft) 97,83 %
09.11.2015 12:10 14,9 C 15,6 C 13,9 C 79 % 0 lf 1022,6 hPa 0,0 l/m 0 min 0 min 144 W/m 25,1 km/h (4 Bft) 95,74 %
09.11.2015 12:12 14,8 C 15,6 C 13,9 C 79 % 0 lf 1022,6 hPa 0,0 l/m 0 min 0 min 138 W/m 37,7 km/h (5 Bft) 97,87 %
09.11.2015 12:14 14,8 C 15,6 C 13,9 C 78 % 0 lf 1022,5 hPa 0,0 l/m 0 min 0 min 136 W/m 31,4 km/h (5 Bft) 97,87 %
09.11.2015 12:16 14,8 C 15,6 C 13,9 C 78 % 0 lf 1022,6 hPa 0,0 l/m 0 min 0 min 146 W/m 25,1 km/h (4 Bft) 97,87 %
09.11.2015 12:18 14,8 C 15,6 C 13,9 C 77 % 0 lf 1022,5 hPa 0,0 l/m 0 min 0 min 155 W/m 39,7 km/h (6 Bft) 95,74 %
09.11.2015 12:20 14,8 C 15,6 C 13,9 C 77 % 0 lf 1022,5 hPa 0,0 l/m 0 min 0 min 161 W/m 39,7 km/h (6 Bft) 96,55 %
09.11.2015 12:22 14,8 C 15,6 C 13,9 C 77 % 0 lf 1022,5 hPa 0,0 l/m 0 min 0 min 158 W/m 25,1 km/h (4 Bft) 100,00 %
09.11.2015 12:24 14,7 C 15,6 C 13,9 C 77 % 0 lf 1022,5 hPa 0,0 l/m 0 min 0 min 153 W/m 33,5 km/h (5 Bft) 95,74 %
09.11.2015 12:26 14,7 C 15,6 C 13,9 C 76 % 0 lf 1022,6 hPa 0,0 l/m 0 min 0 min 155 W/m 33,5 km/h (5 Bft) 97,87 %
09.11.2015 12:28 14,7 C 15,6 C 13,9 C 76 % 0 lf 1022,6 hPa 0,0 l/m 0 min 0 min 162 W/m 27,2 km/h (4 Bft) 95,74 %
09.11.2015 12:30 14,7 C 15,6 C 13,9 C 76 % 0 lf 1022,6 hPa 0,0 l/m 0 min 0 min 164 W/m 35,6 km/h (5 Bft) 93,62 %
09.11.2015 12:32 14,7 C 15,6 C 13,9 C 76 % 0 lf 1022,5 hPa 0,0 l/m 0 min 0 min 170 W/m 31,4 km/h (5 Bft) 98,08 %
09.11.2015 12:34 14,7 C 15,6 C 13,9 C 77 % 0 lf 1022,6 hPa 0,0 l/m 0 min 0 min 172 W/m 27,2 km/h (4 Bft) 95,74 %
09.11.2015 12:36 14,7 C 15,6 C 13,9 C 77 % 0 lf 1022,6 hPa 0,0 l/m 0 min 0 min 158 W/m 39,7 km/h (6 Bft) 89,36 %
09.11.2015 12:38 14,8 C 15,6 C 13,9 C 77 % 0 lf 1022,6 hPa 0,0 l/m 0 min 0 min 144 W/m 35,6 km/h (5 Bft) 95,74 %
09.11.2015 12:40 14,8 C 15,6 C 13,9 C 77 % 0 lf 1022,6 hPa 0,0 l/m 0 min 0 min 149 W/m 33,5 km/h (5 Bft) 89,36 %
09.11.2015 12:42 14,7 C 15,6 C 13,9 C 77 % 0 lf 1022,6 hPa 0,0 l/m 0 min 0 min 146 W/m 27,2 km/h (4 Bft) 93,62 %
09.11.2015 12:44 14,8 C 15,6 C 13,9 C 78 % 0 lf 1022,5 hPa 0,0 l/m 0 min 0 min 140 W/m 23,0 km/h (4 Bft) 93,48 %
09.11.2015 12:46 14,8 C 15,6 C 13,9 C 78 % 0 lf 1022,5 hPa 0,0 l/m 0 min 0 min 138 W/m 33,5 km/h (5 Bft) 93,62 %
09.11.2015 12:48 14,8 C 15,6 C 13,9 C 78 % 0 lf 1022,5 hPa 0,0 l/m 0 min 0 min 142 W/m 29,3 km/h (5 Bft) 93,62 %
09.11.2015 12:50 14,8 C 15,6 C 13,9 C 78 % 0 lf 1022,5 hPa 0,0 l/m 0 min 0 min 150 W/m 25,1 km/h (4 Bft) 95,74 %
09.11.2015 12:52 14,8 C 15,6 C 13,9 C 78 % 0 lf 1022,5 hPa 0,0 l/m 0 min 0 min 155 W/m 27,2 km/h (4 Bft) 95,74 %
09.11.2015 12:54 14,8 C 15,6 C 13,9 C 78 % 0 lf 1022,5 hPa 0,0 l/m 0 min 0 min 144 W/m 16,7 km/h (3 Bft) 93,62 %
09.11.2015 12:56 14,8 C 15,6 C 13,9 C 78 % 0 lf 1022,5 hPa 0,0 l/m 0 min 0 min 134 W/m 23,0 km/h (4 Bft) 95,65 %
09.11.2015 12:58 14,8 C 15,6 C 13,9 C 78 % 0 lf 1022,6 hPa 0,0 l/m 0 min 0 min 136 W/m 23,0 km/h (4 Bft) 89,36 %
09.11.2015 13:00 14,8 C 15,6 C 13,9 C 78 % 0 lf 1022,6 hPa 0,0 l/m 0 min 0 min 142 W/m 25,1 km/h (4 Bft) 93,62 %
09.11.2015 13:02 14,8 C 15,6 C 13,9 C 78 % 0 lf 1022,6 hPa 0,0 l/m 0 min 0 min 137 W/m 39,7 km/h (6 Bft) 93,62 %
09.11.2015 13:04 14,8 C 15,6 C 13,9 C 77 % 0 lf 1022,6 hPa 0,0 l/m 0 min 0 min 122 W/m 33,5 km/h (5 Bft) 93,62 %
09.11.2015 13:06 14,8 C 15,6 C 13,9 C 77 % 0 lf 1022,6 hPa 0,0 l/m 0 min 0 min 120 W/m 20,9 km/h (4 Bft) 93,62 %
09.11.2015 13:08 14,8 C 15,6 C 13,9 C 78 % 0 lf 1022,6 hPa 0,0 l/m 0 min 0 min 121 W/m 18,8 km/h (3 Bft) 93,48 %
09.11.2015 13:10 14,8 C 15,6 C 13,9 C 78 % 0 lf 1022,7 hPa 0,0 l/m 0 min 0 min 125 W/m 29,3 km/h (5 Bft) 93,62 %
09.11.2015 13:12 14,8 C 15,6 C 13,9 C 78 % 0 lf 1022,6 hPa 0,0 l/m 0 min 0 min 133 W/m 23,0 km/h (4 Bft) 91,49 %
09.11.2015 13:14 14,8 C 15,6 C 13,9 C 78 % 0 lf 1022,7 hPa 0,0 l/m 0 min 0 min 128 W/m 29,3 km/h (5 Bft) 91,49 %
09.11.2015 13:16 14,8 C 15,6 C 13,9 C 78 % 0 lf 1022,7 hPa 0,0 l/m 0 min 0 min 124 W/m 31,4 km/h (5 Bft) 89,36 %
09.11.2015 13:18 14,8 C 15,6 C 13,9 C 77 % 0 lf 1022,7 hPa 0,0 l/m 0 min 0 min 116 W/m 37,7 km/h (5 Bft) 93,62 %
09.11.2015 13:20 14,8 C 15,6 C 13,9 C 78 % 0 lf 1022,6 hPa 0,0 l/m 0 min 0 min 117 W/m 29,3 km/h (5 Bft) 91,30 %
09.11.2015 13:22 14,8 C 15,6 C 13,9 C 78 % 0 lf 1022,6 hPa 0,0 l/m 0 min 0 min 134 W/m 23,0 km/h (4 Bft) 91,49 %
09.11.2015 13:24 14,8 C 15,6 C 13,9 C 78 % 0 lf 1022,6 hPa 0,0 l/m 0 min 0 min 141 W/m 18,8 km/h (3 Bft) 95,74 %
09.11.2015 13:26 14,8 C 15,6 C 13,9 C 78 % 0 lf 1022,6 hPa 0,0 l/m 0 min 0 min 143 W/m 25,1 km/h (4 Bft) 93,62 %
09.11.2015 13:28 14,8 C 16,1 C 13,9 C 78 % 0 lf 1022,6 hPa 0,0 l/m 0 min 0 min 152 W/m 29,3 km/h (5 Bft) 93,62 %
09.11.2015 13:30 14,8 C 16,1 C 13,9 C 78 % 0 lf 1022,7 hPa 0,0 l/m 0 min 0 min 157 W/m 25,1 km/h (4 Bft) 93,48 %
09.11.2015 13:32 14,8 C 16,1 C 13,9 C 78 % 0 lf 1022,7 hPa 0,0 l/m 0 min 0 min 168 W/m 25,1 km/h (4 Bft) 95,83 %
09.11.2015 13:34 14,8 C 16,7 C 13,9 C 78 % 0 lf 1022,6 hPa 0,0 l/m 2 min 0 min 187 W/m 29,3 km/h (5 Bft) 93,62 %
09.11.2015 13:36 14,8 C 16,7 C 13,9 C 78 % 0 lf 1022,7 hPa 0,0 l/m 2 min 0 min 226 W/m 41,8 km/h (6 Bft) 97,87 %
09.11.2015 13:38 14,8 C 16,7 C 13,9 C 77 % 0 lf 1022,8 hPa 0,0 l/m 2 min 0 min 196 W/m 33,5 km/h (5 Bft) 91,49 %
09.11.2015 13:40 14,9 C 17,2 C 13,9 C 77 % 0 lf 1022,8 hPa 0,0 l/m 2 min 0 min 231 W/m 25,1 km/h (4 Bft) 97,87 %
09.11.2015 13:42 14,9 C 17,2 C 13,9 C 77 % 0 lf 1022,8 hPa 0,0 l/m 2 min 0 min 236 W/m 33,5 km/h (5 Bft) 97,83 %
09.11.2015 13:44 14,9 C 17,2 C 13,9 C 77 % 0 lf 1022,7 hPa 0,0 l/m 2 min 0 min 220 W/m 25,1 km/h (4 Bft) 100,00 %
09.11.2015 13:46 15,0 C 17,2 C 14,4 C 77 % 0 lf 1022,9 hPa 0,0 l/m 2 min 0 min 236 W/m 37,7 km/h (5 Bft) 95,74 %
09.11.2015 13:48 15,0 C 17,2 C 13,9 C 76 % 0 lf 1022,9 hPa 0,0 l/m 2 min 0 min 212 W/m 20,9 km/h (4 Bft) 93,62 %
09.11.2015 13:50 15,1 C 17,2 C 13,9 C 77 % 0 lf 1022,8 hPa 0,0 l/m 2 min 0 min 187 W/m 39,7 km/h (6 Bft) 100,00 %
09.11.2015 13:52 15,1 C 16,7 C 13,9 C 76 % 0 lf 1022,8 hPa 0,0 l/m 2 min 0 min 211 W/m 39,7 km/h (6 Bft) 100,00 %
09.11.2015 13:54 15,1 C 16,7 C 13,9 C 76 % 0 lf 1022,7 hPa 0,0 l/m 2 min 0 min 236 W/m 35,6 km/h (5 Bft) 100,00 %
09.11.2015 13:56 15,1 C 17,2 C 13,9 C 76 % 0 lf 1022,7 hPa 0,0 l/m 2 min 0 min 223 W/m 27,2 km/h (4 Bft) 95,74 %
09.11.2015 13:58 15,1 C 17,2 C 13,9 C 76 % 0 lf 1022,7 hPa 0,0 l/m 2 min 0 min 227 W/m 31,4 km/h (5 Bft) 97,87 %
09.11.2015 14:00 15,1 C 17,2 C 13,9 C 76 % 0 lf 1022,7 hPa 0,0 l/m 2 min 0 min 221 W/m 39,7 km/h (6 Bft) 100,00 %
09.11.2015 14:02 15,2 C 17,2 C 13,9 C 76 % 0 lf 1022,7 hPa 0,0 l/m 2 min 0 min 215 W/m 37,7 km/h (5 Bft) 97,87 %
09.11.2015 14:04 15,2 C 17,2 C 14,4 C 76 % 0 lf 1022,6 hPa 0,0 l/m 2 min 0 min 204 W/m 35,6 km/h (5 Bft) 97,87 %
09.11.2015 14:06 15,2 C 16,7 C 14,4 C 76 % 0 lf 1022,7 hPa 0,0 l/m 2 min 0 min 185 W/m 29,3 km/h (5 Bft) 100,00 %
09.11.2015 14:08 15,2 C 16,7 C 14,4 C 76 % 0 lf 1022,7 hPa 0,0 l/m 2 min 0 min 169 W/m 27,2 km/h (4 Bft) 100,00 %
09.11.2015 14:10 15,2 C 16,7 C 13,9 C 76 % 0 lf 1022,7 hPa 0,0 l/m 2 min 0 min 155 W/m 31,4 km/h (5 Bft) 97,87 %
09.11.2015 14:12 15,2 C 16,1 C 13,9 C 76 % 0 lf 1022,6 hPa 0,0 l/m 0 min 0 min 133 W/m 31,4 km/h (5 Bft) 100,00 %
09.11.2015 14:14 15,2 C 16,1 C 13,9 C 76 % 0 lf 1022,6 hPa 0,0 l/m 0 min 0 min 138 W/m 31,4 km/h (5 Bft) 97,87 %
09.11.2015 14:16 15,2 C 16,1 C 13,9 C 77 % 0 lf 1022,6 hPa 0,0 l/m 0 min 0 min 124 W/m 33,5 km/h (5 Bft) 97,87 %
09.11.2015 14:18 15,2 C 16,1 C 13,9 C 77 % 0 lf 1022,5 hPa 0,0 l/m 0 min 0 min 117 W/m 27,2 km/h (4 Bft) 100,00 %
09.11.2015 14:20 15,2 C 16,1 C 13,9 C 77 % 0 lf 1022,4 hPa 0,0 l/m 0 min 0 min 111 W/m 29,3 km/h (5 Bft) 100,00 %
09.11.2015 14:22 15,2 C 15,6 C 13,9 C 77 % 0 lf 1022,4 hPa 0,0 l/m 0 min 0 min 107 W/m 27,2 km/h (4 Bft) 97,87 %
09.11.2015 14:24 15,1 C 15,6 C 13,9 C 77 % 0 lf 1022,3 hPa 0,0 l/m 0 min 0 min 116 W/m 37,7 km/h (5 Bft) 95,74 %
09.11.2015 14:26 15,1 C 15,6 C 13,9 C 77 % 0 lf 1022,4 hPa 0,0 l/m 0 min 0 min 121 W/m 23,0 km/h (4 Bft) 97,87 %
09.11.2015 14:28 15,1 C 15,6 C 13,9 C 77 % 0 lf 1022,4 hPa 0,0 l/m 0 min 0 min 122 W/m 35,6 km/h (5 Bft) 97,83 %
09.11.2015 14:30 15,1 C 15,6 C 13,9 C 77 % 0 lf 1022,4 hPa 0,0 l/m 0 min 0 min 113 W/m 31,4 km/h (5 Bft) 100,00 %
09.11.2015 14:32 15,0 C 15,6 C 13,9 C 77 % 0 lf 1022,5 hPa 0,0 l/m 0 min 0 min 106 W/m 37,7 km/h (5 Bft) 95,74 %
09.11.2015 14:34 15,0 C 15,6 C 13,9 C 77 % 0 lf 1022,5 hPa 0,0 l/m 0 min 0 min 105 W/m 29,3 km/h (5 Bft) 100,00 %
09.11.2015 14:36 15,0 C 15,6 C 13,9 C 77 % 0 lf 1022,5 hPa 0,0 l/m 0 min 0 min 102 W/m 29,3 km/h (5 Bft) 100,00 %
09.11.2015 14:38 15,0 C 15,6 C 13,9 C 78 % 0 lf 1022,6 hPa 0,0 l/m 0 min 0 min 92 W/m 27,2 km/h (4 Bft) 97,87 %
09.11.2015 14:40 15,0 C 15,6 C 13,9 C 78 % 0 lf 1022,7 hPa 0,0 l/m 0 min 0 min 92 W/m 33,5 km/h (5 Bft) 97,83 %
09.11.2015 14:42 14,9 C 15,6 C 13,9 C 77 % 0 lf 1022,6 hPa 0,0 l/m 0 min 0 min 97 W/m 35,6 km/h (5 Bft) 97,87 %
09.11.2015 14:44 14,9 C 15,6 C 13,9 C 78 % 0 lf 1022,6 hPa 0,0 l/m 0 min 0 min 110 W/m 33,5 km/h (5 Bft) 100,00 %
09.11.2015 14:46 14,9 C 15,6 C 13,9 C 77 % 0 lf 1022,6 hPa 0,0 l/m 0 min 0 min 111 W/m 37,7 km/h (5 Bft) 97,87 %
09.11.2015 14:48 14,9 C 15,6 C 13,9 C 77 % 0 lf 1022,6 hPa 0,0 l/m 0 min 0 min 94 W/m 39,7 km/h (6 Bft) 97,87 %
09.11.2015 14:50 14,9 C 15,6 C 13,9 C 77 % 0 lf 1022,6 hPa 0,0 l/m 0 min 0 min 77 W/m 31,4 km/h (5 Bft) 97,87 %
09.11.2015 14:52 14,9 C 15,6 C 13,3 C 77 % 0 lf 1022,7 hPa 0,0 l/m 0 min 0 min 76 W/m 39,7 km/h (6 Bft) 100,00 %
09.11.2015 14:54 14,9 C 15,6 C 13,3 C 77 % 0 lf 1022,6 hPa 0,0 l/m 0 min 0 min 77 W/m 25,1 km/h (4 Bft) 97,87 %
09.11.2015 14:56 14,8 C 15,6 C 13,3 C 77 % 0 lf 1022,6 hPa 0,0 l/m 0 min 0 min 82 W/m 33,5 km/h (5 Bft) 100,00 %
09.11.2015 14:58 14,8 C 15,6 C 13,3 C 77 % 0 lf 1022,6 hPa 0,0 l/m 0 min 0 min 88 W/m 23,0 km/h (4 Bft) 100,00 %
09.11.2015 15:00 14,8 C 15,6 C 13,3 C 77 % 0 lf 1022,6 hPa 0,0 l/m 0 min 0 min 86 W/m 25,1 km/h (4 Bft) 97,87 %
09.11.2015 15:02 14,8 C 15,6 C 13,3 C 78 % 0 lf 1022,6 hPa 0,0 l/m 0 min 0 min 82 W/m 41,8 km/h (6 Bft) 91,49 %
09.11.2015 15:04 14,8 C 15,6 C 13,3 C 77 % 0 lf 1022,6 hPa 0,0 l/m 0 min 0 min 83 W/m 27,2 km/h (4 Bft) 97,83 %
09.11.2015 15:06 14,8 C 15,6 C 13,3 C 77 % 0 lf 1022,7 hPa 0,0 l/m 0 min 0 min 83 W/m 39,7 km/h (6 Bft) 95,74 %
09.11.2015 15:08 14,8 C 15,6 C 13,3 C 76 % 0 lf 1022,9 hPa 0,0 l/m 0 min 0 min 91 W/m 35,6 km/h (5 Bft) 93,62 %
09.11.2015 15:10 14,8 C 15,6 C 13,3 C 76 % 0 lf 1022,9 hPa 0,0 l/m 0 min 0 min 95 W/m 25,1 km/h (4 Bft) 97,87 %
09.11.2015 15:12 14,8 C 15,6 C 13,3 C 76 % 0 lf 1022,8 hPa 0,0 l/m 0 min 0 min 86 W/m 18,8 km/h (3 Bft) 91,49 %
09.11.2015 15:14 14,8 C 15,6 C 13,3 C 77 % 0 lf 1022,6 hPa 0,0 l/m 0 min 0 min 83 W/m 27,2 km/h (4 Bft) 95,74 %
09.11.2015 15:16 14,8 C 15,6 C 13,3 C 77 % 0 lf 1022,7 hPa 0,0 l/m 0 min 0 min 78 W/m 25,1 km/h (4 Bft) 93,48 %
09.11.2015 15:18 14,8 C 15,6 C 13,3 C 77 % 0 lf 1022,8 hPa 0,0 l/m 0 min 0 min 64 W/m 27,2 km/h (4 Bft) 95,74 %
09.11.2015 15:20 14,8 C 15,0 C 13,3 C 77 % 0 lf 1022,8 hPa 0,0 l/m 0 min 0 min 56 W/m 23,0 km/h (4 Bft) 91,49 %
09.11.2015 15:22 14,8 C 15,0 C 13,3 C 77 % 0 lf 1022,7 hPa 0,0 l/m 0 min 0 min 52 W/m 37,7 km/h (5 Bft) 93,62 %
09.11.2015 15:24 14,7 C 15,0 C 13,3 C 77 % 0 lf 1022,6 hPa 0,0 l/m 0 min 0 min 51 W/m 27,2 km/h (4 Bft) 91,49 %
09.11.2015 15:26 14,7 C 15,0 C 13,3 C 77 % 0 lf 1022,6 hPa 0,0 l/m 0 min 0 min 50 W/m 29,3 km/h (5 Bft) 93,62 %
09.11.2015 15:28 14,7 C 15,0 C 13,3 C 77 % 0 lf 1022,6 hPa 0,0 l/m 0 min 0 min 53 W/m 29,3 km/h (5 Bft) 95,65 %
09.11.2015 15:30 14,7 C 15,0 C 13,3 C 77 % 0 lf 1022,5 hPa 0,0 l/m 0 min 0 min 54 W/m 25,1 km/h (4 Bft) 85,11 %
09.11.2015 15:32 14,7 C 15,0 C 13,3 C 77 % 0 lf 1022,7 hPa 0,0 l/m 0 min 0 min 49 W/m 27,2 km/h (4 Bft) 92,00 %
09.11.2015 15:34 14,7 C 15,0 C 13,3 C 77 % 0 lf 1022,7 hPa 0,0 l/m 0 min 0 min 40 W/m 27,2 km/h (4 Bft) 91,49 %
09.11.2015 15:36 14,7 C 15,0 C 13,3 C 77 % 0 lf 1022,7 hPa 0,0 l/m 0 min 0 min 37 W/m 33,5 km/h (5 Bft) 91,49 %
09.11.2015 15:38 14,7 C 15,0 C 13,3 C 77 % 0 lf 1022,7 hPa 0,0 l/m 0 min 0 min 36 W/m 27,2 km/h (4 Bft) 91,30 %
09.11.2015 15:40 14,6 C 15,0 C 13,3 C 77 % 0 lf 1022,6 hPa 0,0 l/m 0 min 0 min 44 W/m 25,1 km/h (4 Bft) 93,62 %
09.11.2015 15:42 14,6 C 15,0 C 13,3 C 78 % 0 lf 1022,7 hPa 0,0 l/m 0 min 0 min 52 W/m 25,1 km/h (4 Bft) 91,67 %
09.11.2015 15:44 14,6 C 15,0 C 13,3 C 78 % 0 lf 1022,6 hPa 0,0 l/m 0 min 0 min 62 W/m 27,2 km/h (4 Bft) 95,74 %
09.11.2015 15:46 14,6 C 15,0 C 13,3 C 77 % 0 lf 1022,7 hPa 0,0 l/m 0 min 0 min 59 W/m 23,0 km/h (4 Bft) 89,36 %
09.11.2015 15:48 14,6 C 15,0 C 13,3 C 78 % 0 lf 1022,6 hPa 0,0 l/m 0 min 0 min 62 W/m 31,4 km/h (5 Bft) 95,74 %
09.11.2015 15:50 14,6 C 15,0 C 13,3 C 78 % 0 lf 1022,7 hPa 0,0 l/m 2 min 0 min 69 W/m 29,3 km/h (5 Bft) 95,65 %
09.11.2015 15:52 14,6 C 15,0 C 13,3 C 78 % 0 lf 1022,7 hPa 0,0 l/m 2 min 0 min 69 W/m 33,5 km/h (5 Bft) 95,74 %
09.11.2015 15:54 14,6 C 15,0 C 13,3 C 77 % 0 lf 1023,0 hPa 0,0 l/m 0 min 0 min 58 W/m 39,7 km/h (6 Bft) 95,74 %
09.11.2015 15:56 14,6 C 15,0 C 13,3 C 77 % 0 lf 1023,0 hPa 0,0 l/m 0 min 0 min 44 W/m 27,2 km/h (4 Bft) 97,87 %
09.11.2015 15:58 14,6 C 15,0 C 13,3 C 77 % 0 lf 1023,1 hPa 0,0 l/m 0 min 0 min 42 W/m 33,5 km/h (5 Bft) 97,87 %
09.11.2015 16:00 14,6 C 15,0 C 13,3 C 77 % 0 lf 1023,2 hPa 0,0 l/m 0 min 0 min 45 W/m 27,2 km/h (4 Bft) 95,74 %
09.11.2015 16:02 14,6 C 15,0 C 13,3 C 77 % 0 lf 1023,3 hPa 0,0 l/m 0 min 0 min 51 W/m 31,4 km/h (5 Bft) 93,48 %
09.11.2015 16:04 14,6 C 15,0 C 13,3 C 77 % 0 lf 1023,3 hPa 0,0 l/m 0 min 0 min 50 W/m 29,3 km/h (5 Bft) 91,49 %
09.11.2015 16:06 14,6 C 15,0 C 13,3 C 77 % 0 lf 1023,2 hPa 0,0 l/m 0 min 0 min 48 W/m 31,4 km/h (5 Bft) 93,62 %
09.11.2015 16:08 14,6 C 15,0 C 13,3 C 77 % 0 lf 1023,1 hPa 0,0 l/m 0 min 0 min 45 W/m 25,1 km/h (4 Bft) 97,87 %
09.11.2015 16:10 14,6 C 15,0 C 13,3 C 77 % 0 lf 1023,1 hPa 0,0 l/m 0 min 0 min 40 W/m 29,3 km/h (5 Bft) 97,87 %
09.11.2015 16:12 14,6 C 15,0 C 13,3 C 77 % 0 lf 1023,1 hPa 0,0 l/m 0 min 0 min 33 W/m 33,5 km/h (5 Bft) 95,74 %
09.11.2015 16:14 14,6 C 15,0 C 13,3 C 77 % 0 lf 1023,0 hPa 0,0 l/m 0 min 0 min 26 W/m 27,2 km/h (4 Bft) 97,83 %
09.11.2015 16:16 14,6 C 14,4 C 12,8 C 77 % 0 lf 1023,0 hPa 0,0 l/m 0 min 0 min 21 W/m 27,2 km/h (4 Bft) 93,62 %
09.11.2015 16:18 14,6 C 14,4 C 12,8 C 77 % 0 lf 1023,0 hPa 0,0 l/m 0 min 0 min 19 W/m 27,2 km/h (4 Bft) 95,74 %
09.11.2015 16:20 14,6 C 14,4 C 12,8 C 77 % 0 lf 1023,0 hPa 0,0 l/m 0 min 0 min 18 W/m 23,0 km/h (4 Bft) 93,62 %
09.11.2015 16:22 14,5 C 14,4 C 12,8 C 77 % 0 lf 1023,0 hPa 0,0 l/m 0 min 0 min 17 W/m 20,9 km/h (4 Bft) 93,75 %
09.11.2015 16:24 14,5 C 14,4 C 12,8 C 77 % 0 lf 1023,1 hPa 0,0 l/m 0 min 0 min 15 W/m 25,1 km/h (4 Bft) 95,65 %
09.11.2015 16:26 14,5 C 14,4 C 12,8 C 77 % 0 lf 1023,1 hPa 0,0 l/m 0 min 0 min 14 W/m 25,1 km/h (4 Bft) 97,87 %
09.11.2015 16:28 14,5 C 14,4 C 12,8 C 77 % 0 lf 1023,2 hPa 0,0 l/m 0 min 0 min 12 W/m 20,9 km/h (4 Bft) 97,87 %
09.11.2015 16:30 14,5 C 14,4 C 12,8 C 78 % 0 lf 1023,2 hPa 0,0 l/m 0 min 0 min 12 W/m 20,9 km/h (4 Bft) 97,87 %
09.11.2015 16:32 14,4 C 14,4 C 12,8 C 78 % 0 lf 1023,1 hPa 0,0 l/m 0 min 0 min 11 W/m 20,9 km/h (4 Bft) 95,74 %
09.11.2015 16:34 14,4 C 14,4 C 12,8 C 78 % 0 lf 1023,1 hPa 0,0 l/m 0 min 0 min 11 W/m 27,2 km/h (4 Bft) 95,65 %
09.11.2015 16:36 14,4 C 14,4 C 12,8 C 78 % 0 lf 1023,0 hPa 0,0 l/m 0 min 0 min 11 W/m 25,1 km/h (4 Bft) 95,74 %
09.11.2015 16:38 14,4 C 14,4 C 12,8 C 78 % 0 lf 1023,0 hPa 0,0 l/m 0 min 0 min 11 W/m 18,8 km/h (3 Bft) 97,87 %
09.11.2015 16:40 14,4 C 14,4 C 12,8 C 78 % 0 lf 1023,0 hPa 0,0 l/m 0 min 0 min 9 W/m 25,1 km/h (4 Bft) 95,74 %
09.11.2015 16:42 14,3 C 14,4 C 12,8 C 78 % 0 lf 1023,2 hPa 0,0 l/m 0 min 0 min 9 W/m 29,3 km/h (5 Bft) 95,74 %
09.11.2015 16:44 14,3 C 14,4 C 12,8 C 78 % 0 lf 1023,1 hPa 0,0 l/m 0 min 0 min 7 W/m 27,2 km/h (4 Bft) 97,87 %
09.11.2015 16:46 14,3 C 14,4 C 12,8 C 78 % 0 lf 1023,2 hPa 0,0 l/m 0 min 0 min 7 W/m 27,2 km/h (4 Bft) 93,48 %
09.11.2015 16:48 14,3 C 14,4 C 12,8 C 78 % 0 lf 1023,1 hPa 0,0 l/m 0 min 0 min 5 W/m 27,2 km/h (4 Bft) 97,87 %
09.11.2015 16:50 14,2 C 14,4 C 12,8 C 78 % 0 lf 1023,0 hPa 0,0 l/m 0 min 0 min 2 W/m 25,1 km/h (4 Bft) 95,74 %
09.11.2015 16:52 14,2 C 14,4 C 12,8 C 78 % 0 lf 1022,9 hPa 0,0 l/m 0 min 0 min 0 W/m 16,7 km/h (3 Bft) 97,87 %
09.11.2015 16:54 14,2 C 14,4 C 12,8 C 78 % 0 lf 1023,0 hPa 0,0 l/m 0 min 0 min 0 W/m 25,1 km/h (4 Bft) 97,87 %
09.11.2015 16:56 14,2 C 14,4 C 12,8 C 78 % 0 lf 1022,8 hPa 0,0 l/m 0 min 0 min 0 W/m 16,7 km/h (3 Bft) 89,36 %
09.11.2015 16:58 14,2 C 13,9 C 12,8 C 78 % 0 lf 1022,9 hPa 0,0 l/m 0 min 0 min 0 W/m 16,7 km/h (3 Bft) 97,83 %
09.11.2015 17:00 14,2 C 13,9 C 12,8 C 78 % 0 lf 1022,8 hPa 0,0 l/m 0 min 0 min 0 W/m 31,4 km/h (5 Bft) 97,87 %
09.11.2015 17:02 14,2 C 14,4 C 12,8 C 78 % 0 lf 1022,8 hPa 0,0 l/m 0 min 0 min 3 W/m 27,2 km/h (4 Bft) 97,87 %
09.11.2015 17:04 14,2 C 13,9 C 12,8 C 78 % 0 lf 1022,8 hPa 0,0 l/m 0 min 0 min 5 W/m 23,0 km/h (4 Bft) 93,62 %
09.11.2015 17:06 14,2 C 13,9 C 12,8 C 78 % 0 lf 1022,7 hPa 0,0 l/m 0 min 0 min 5 W/m 23,0 km/h (4 Bft) 95,74 %
09.11.2015 17:08 14,2 C 13,9 C 12,2 C 78 % 0 lf 1022,6 hPa 0,0 l/m 0 min 0 min 0 W/m 29,3 km/h (5 Bft) 95,65 %
09.11.2015 17:10 14,2 C 13,9 C 12,8 C 78 % 0 lf 1022,6 hPa 0,0 l/m 0 min 0 min 0 W/m 23,0 km/h (4 Bft) 93,62 %
09.11.2015 17:12 14,2 C 13,9 C 12,2 C 78 % 0 lf 1022,5 hPa 0,0 l/m 0 min 0 min 0 W/m 33,5 km/h (5 Bft) 100,00 %
09.11.2015 17:14 14,2 C 13,9 C 12,2 C 78 % 0 lf 1022,6 hPa 0,0 l/m 0 min 0 min 0 W/m 29,3 km/h (5 Bft) 95,74 %
09.11.2015 17:16 14,1 C 13,9 C 12,2 C 78 % 0 lf 1022,5 hPa 0,0 l/m 0 min 0 min 0 W/m 18,8 km/h (3 Bft) 95,74 %
09.11.2015 17:18 14,1 C 13,9 C 12,2 C 78 % 0 lf 1022,5 hPa 0,0 l/m 0 min 0 min 0 W/m 33,5 km/h (5 Bft) 97,87 %
09.11.2015 17:20 14,1 C 13,9 C 12,2 C 78 % 0 lf 1022,5 hPa 0,0 l/m 0 min 0 min 0 W/m 33,5 km/h (5 Bft) 91,30 %
09.11.2015 17:22 14,1 C 13,9 C 12,2 C 78 % 0 lf 1022,5 hPa 0,0 l/m 0 min 0 min 0 W/m 33,5 km/h (5 Bft) 93,62 %
09.11.2015 17:24 14,0 C 13,9 C 12,2 C 78 % 0 lf 1022,5 hPa 0,0 l/m 0 min 0 min 0 W/m 23,0 km/h (4 Bft) 97,87 %
09.11.2015 17:26 14,0 C 13,9 C 12,2 C 78 % 0 lf 1022,5 hPa 0,0 l/m 0 min 0 min 0 W/m 35,6 km/h (5 Bft) 100,00 %
09.11.2015 17:28 13,9 C 13,9 C 12,2 C 78 % 0 lf 1022,5 hPa 0,0 l/m 0 min 0 min 0 W/m 29,3 km/h (5 Bft) 97,87 %
09.11.2015 17:30 13,9 C 13,9 C 12,2 C 78 % 0 lf 1022,6 hPa 0,0 l/m 0 min 0 min 0 W/m 23,0 km/h (4 Bft) 95,74 %
09.11.2015 17:32 13,9 C 13,9 C 12,2 C 78 % 0 lf 1022,6 hPa 0,0 l/m 0 min 0 min 0 W/m 20,9 km/h (4 Bft) 97,83 %
09.11.2015 17:34 13,9 C 13,9 C 12,2 C 78 % 0 lf 1022,7 hPa 0,0 l/m 0 min 0 min 0 W/m 25,1 km/h (4 Bft) 95,74 %
09.11.2015 17:36 13,9 C 13,9 C 12,2 C 78 % 0 lf 1022,7 hPa 0,0 l/m 0 min 0 min 0 W/m 33,5 km/h (5 Bft) 97,87 %
09.11.2015 17:38 13,9 C 13,9 C 12,2 C 78 % 0 lf 1022,7 hPa 0,0 l/m 0 min 0 min 0 W/m 23,0 km/h (4 Bft) 97,87 %
09.11.2015 17:40 13,9 C 13,9 C 12,2 C 78 % 0 lf 1022,8 hPa 0,0 l/m 0 min 0 min 0 W/m 33,5 km/h (5 Bft) 97,87 %
09.11.2015 17:42 13,9 C 13,9 C 12,2 C 78 % 0 lf 1022,8 hPa 0,0 l/m 0 min 0 min 0 W/m 23,0 km/h (4 Bft) 95,74 %
09.11.2015 17:44 13,8 C 13,9 C 12,2 C 78 % 0 lf 1022,8 hPa 0,0 l/m 0 min 0 min 0 W/m 20,9 km/h (4 Bft) 100,00 %
09.11.2015 17:46 13,8 C 13,9 C 12,2 C 78 % 0 lf 1022,8 hPa 0,0 l/m 0 min 0 min 0 W/m 16,7 km/h (3 Bft) 93,62 %
09.11.2015 17:48 13,8 C 13,9 C 12,2 C 78 % 0 lf 1022,9 hPa 0,0 l/m 0 min 0 min 0 W/m 31,4 km/h (5 Bft) 100,00 %
09.11.2015 17:50 13,8 C 13,9 C 12,2 C 78 % 0 lf 1023,0 hPa 0,0 l/m 0 min 0 min 0 W/m 35,6 km/h (5 Bft) 100,00 %
09.11.2015 17:52 13,8 C 13,9 C 12,2 C 78 % 0 lf 1023,1 hPa 0,0 l/m 0 min 0 min 0 W/m 37,7 km/h (5 Bft) 95,74 %
09.11.2015 17:54 13,8 C 13,9 C 12,2 C 78 % 0 lf 1023,1 hPa 0,0 l/m 0 min 0 min 0 W/m 37,7 km/h (5 Bft) 97,87 %
09.11.2015 17:56 13,8 C 13,9 C 12,2 C 78 % 0 lf 1023,1 hPa 0,0 l/m 0 min 0 min 0 W/m 27,2 km/h (4 Bft) 100,00 %
09.11.2015 17:58 13,8 C 13,9 C 12,2 C 78 % 0 lf 1022,9 hPa 0,0 l/m 0 min 0 min 0 W/m 27,2 km/h (4 Bft) 100,00 %
09.11.2015 18:00 13,8 C 13,9 C 12,2 C 78 % 0 lf 1022,9 hPa 0,0 l/m 0 min 0 min 0 W/m 18,8 km/h (3 Bft) 97,87 %
09.11.2015 18:02 13,7 C 13,9 C 12,2 C 78 % 0 lf 1023,0 hPa 0,0 l/m 0 min 0 min 0 W/m 27,2 km/h (4 Bft) 95,74 %
09.11.2015 18:04 13,7 C 13,9 C 12,2 C 78 % 0 lf 1022,9 hPa 0,0 l/m 0 min 0 min 0 W/m 14,6 km/h (3 Bft) 95,74 %
09.11.2015 18:06 13,7 C 13,9 C 12,2 C 78 % 0 lf 1023,0 hPa 0,0 l/m 0 min 0 min 0 W/m 23,0 km/h (4 Bft) 93,62 %
09.11.2015 18:08 13,7 C 13,9 C 12,2 C 78 % 0 lf 1023,0 hPa 0,0 l/m 0 min 0 min 0 W/m 37,7 km/h (5 Bft) 93,48 %
09.11.2015 18:10 13,7 C 13,3 C 12,2 C 79 % 0 lf 1023,1 hPa 0,0 l/m 0 min 0 min 0 W/m 23,0 km/h (4 Bft) 93,62 %
09.11.2015 18:12 13,7 C 13,3 C 12,2 C 79 % 0 lf 1023,0 hPa 0,0 l/m 0 min 0 min 0 W/m 20,9 km/h (4 Bft) 93,62 %
09.11.2015 18:14 13,7 C 13,9 C 12,2 C 79 % 0 lf 1023,0 hPa 0,0 l/m 0 min 0 min 0 W/m 31,4 km/h (5 Bft) 93,62 %
09.11.2015 18:16 13,7 C 13,9 C 12,2 C 79 % 0 lf 1023,1 hPa 0,0 l/m 0 min 0 min 0 W/m 23,0 km/h (4 Bft) 95,74 %
09.11.2015 18:18 13,7 C 13,9 C 12,2 C 79 % 0 lf 1023,0 hPa 0,0 l/m 0 min 0 min 0 W/m 25,1 km/h (4 Bft) 95,74 %
09.11.2015 18:20 13,7 C 13,9 C 12,2 C 79 % 0 lf 1022,8 hPa 0,0 l/m 0 min 0 min 0 W/m 29,3 km/h (5 Bft) 93,48 %
09.11.2015 18:22 13,6 C 13,9 C 12,2 C 79 % 0 lf 1022,7 hPa 0,0 l/m 0 min 0 min 0 W/m 25,1 km/h (4 Bft) 95,74 %
09.11.2015 18:24 13,6 C 13,9 C 12,2 C 79 % 0 lf 1022,7 hPa 0,0 l/m 0 min 0 min 0 W/m 27,2 km/h (4 Bft) 91,49 %
09.11.2015 18:26 13,6 C 13,3 C 11,7 C 79 % 0 lf 1022,8 hPa 0,0 l/m 0 min 0 min 0 W/m 20,9 km/h (4 Bft) 95,74 %
09.11.2015 18:28 13,6 C 13,3 C 11,7 C 79 % 0 lf 1022,8 hPa 0,0 l/m 0 min 0 min 0 W/m 23,0 km/h (4 Bft) 95,74 %
09.11.2015 18:30 13,6 C 13,3 C 11,7 C 79 % 0 lf 1022,6 hPa 0,0 l/m 0 min 0 min 0 W/m 16,7 km/h (3 Bft) 93,62 %
09.11.2015 18:32 13,6 C 13,3 C 11,7 C 79 % 0 lf 1022,8 hPa 0,0 l/m 0 min 0 min 0 W/m 31,4 km/h (5 Bft) 93,48 %
09.11.2015 18:34 13,6 C 13,3 C 12,2 C 80 % 0 lf 1022,9 hPa 0,0 l/m 0 min 0 min 0 W/m 35,6 km/h (5 Bft) 95,74 %
09.11.2015 18:36 13,6 C 13,3 C 12,2 C 80 % 0 lf 1023,0 hPa 0,0 l/m 0 min 0 min 0 W/m 27,2 km/h (4 Bft) 93,62 %
09.11.2015 18:38 13,6 C 13,3 C 12,2 C 80 % 0 lf 1022,9 hPa 0,0 l/m 0 min 0 min 0 W/m 25,1 km/h (4 Bft) 95,74 %
09.11.2015 18:40 13,5 C 13,3 C 12,2 C 80 % 0 lf 1022,9 hPa 0,0 l/m 0 min 0 min 0 W/m 27,2 km/h (4 Bft) 93,62 %
09.11.2015 18:42 13,5 C 13,3 C 11,7 C 80 % 0 lf 1023,0 hPa 0,0 l/m 0 min 0 min 0 W/m 27,2 km/h (4 Bft) 93,62 %
09.11.2015 18:44 13,5 C 13,3 C 11,7 C 80 % 0 lf 1022,9 hPa 0,0 l/m 0 min 0 min 0 W/m 27,2 km/h (4 Bft) 95,65 %
09.11.2015 18:46 13,5 C 13,3 C 11,7 C 80 % 0 lf 1022,9 hPa 0,0 l/m 0 min 0 min 0 W/m 20,9 km/h (4 Bft) 91,49 %
09.11.2015 18:48 13,5 C 13,3 C 11,7 C 80 % 0 lf 1022,9 hPa 0,0 l/m 0 min 0 min 0 W/m 29,3 km/h (5 Bft) 95,74 %
09.11.2015 18:50 13,5 C 13,3 C 11,7 C 80 % 0 lf 1022,8 hPa 0,0 l/m 0 min 0 min 0 W/m 25,1 km/h (4 Bft) 93,62 %
09.11.2015 18:52 13,4 C 13,3 C 11,7 C 80 % 0 lf 1022,9 hPa 0,0 l/m 0 min 0 min 0 W/m 29,3 km/h (5 Bft) 95,74 %
09.11.2015 18:54 13,4 C 13,3 C 12,2 C 81 % 0 lf 1022,8 hPa 0,0 l/m 0 min 0 min 0 W/m 27,2 km/h (4 Bft) 91,30 %
09.11.2015 18:56 13,4 C 13,3 C 12,2 C 81 % 0 lf 1022,8 hPa 0,0 l/m 0 min 0 min 0 W/m 27,2 km/h (4 Bft) 95,74 %
09.11.2015 18:58 13,4 C 13,3 C 12,2 C 81 % 0 lf 1022,9 hPa 0,0 l/m 0 min 0 min 0 W/m 20,9 km/h (4 Bft) 97,87 %
09.11.2015 19:00 13,4 C 13,3 C 12,2 C 81 % 0 lf 1022,9 hPa 0,0 l/m 0 min 0 min 0 W/m 29,3 km/h (5 Bft) 100,00 %
09.11.2015 19:02 13,4 C 13,3 C 12,2 C 81 % 0 lf 1022,8 hPa 0,0 l/m 0 min 0 min 0 W/m 27,2 km/h (4 Bft) 95,74 %
09.11.2015 19:04 13,4 C 13,3 C 12,2 C 81 % 0 lf 1022,7 hPa 0,0 l/m 0 min 0 min 0 W/m 25,1 km/h (4 Bft) 100,00 %
09.11.2015 19:06 13,4 C 13,3 C 12,2 C 81 % 0 lf 1022,8 hPa 0,0 l/m 0 min 0 min 0 W/m 31,4 km/h (5 Bft) 97,83 %
09.11.2015 19:08 13,4 C 13,3 C 12,2 C 81 % 0 lf 1022,9 hPa 0,0 l/m 0 min 0 min 0 W/m 20,9 km/h (4 Bft) 95,74 %
09.11.2015 19:10 13,4 C 13,3 C 12,2 C 81 % 0 lf 1022,9 hPa 0,0 l/m 0 min 0 min 0 W/m 23,0 km/h (4 Bft) 95,74 %
09.11.2015 19:12 13,4 C 13,3 C 12,2 C 81 % 0 lf 1022,8 hPa 0,0 l/m 0 min 0 min 0 W/m 25,1 km/h (4 Bft) 91,49 %
09.11.2015 19:14 13,4 C 13,9 C 12,2 C 81 % 0 lf 1022,9 hPa 0,0 l/m 0 min 0 min 0 W/m 29,3 km/h (5 Bft) 97,87 %
09.11.2015 19:16 13,4 C 13,9 C 12,2 C 81 % 0 lf 1022,9 hPa 0,0 l/m 0 min 0 min 0 W/m 25,1 km/h (4 Bft) 93,62 %
09.11.2015 19:18 13,4 C 13,9 C 12,2 C 81 % 0 lf 1022,9 hPa 0,0 l/m 0 min 0 min 0 W/m 23,0 km/h (4 Bft) 97,83 %
09.11.2015 19:20 13,4 C 13,9 C 12,2 C 81 % 0 lf 1022,9 hPa 0,0 l/m 0 min 0 min 0 W/m 37,7 km/h (5 Bft) 97,87 %
09.11.2015 19:22 13,5 C 13,9 C 12,2 C 81 % 0 lf 1022,9 hPa 0,0 l/m 0 min 0 min 0 W/m 29,3 km/h (5 Bft) 97,87 %
09.11.2015 19:24 13,5 C 13,9 C 12,2 C 81 % 0 lf 1023,0 hPa 0,0 l/m 0 min 0 min 0 W/m 29,3 km/h (5 Bft) 97,87 %
09.11.2015 19:26 13,5 C 13,9 C 12,2 C 81 % 0 lf 1023,0 hPa 0,0 l/m 0 min 0 min 0 W/m 29,3 km/h (5 Bft) 95,74 %
09.11.2015 19:28 13,5 C 13,9 C 12,2 C 81 % 0 lf 1023,0 hPa 0,0 l/m 0 min 0 min 0 W/m 20,9 km/h (4 Bft) 95,74 %
09.11.2015 19:30 13,5 C 13,9 C 12,2 C 81 % 0 lf 1023,0 hPa 0,0 l/m 0 min 0 min 0 W/m 25,1 km/h (4 Bft) 97,83 %
09.11.2015 19:32 13,5 C 13,9 C 12,2 C 81 % 0 lf 1022,9 hPa 0,0 l/m 0 min 0 min 0 W/m 39,7 km/h (6 Bft) 97,87 %
09.11.2015 19:34 13,5 C 13,9 C 12,2 C 81 % 0 lf 1022,9 hPa 0,0 l/m 0 min 0 min 0 W/m 41,8 km/h (6 Bft) 97,87 %
09.11.2015 19:36 13,5 C 13,9 C 12,2 C 81 % 0 lf 1023,0 hPa 0,0 l/m 0 min 0 min 0 W/m 29,3 km/h (5 Bft) 95,74 %
09.11.2015 19:38 13,6 C 13,9 C 12,2 C 81 % 0 lf 1023,0 hPa 0,0 l/m 0 min 0 min 0 W/m 29,3 km/h (5 Bft) 97,87 %
09.11.2015 19:40 13,6 C 13,9 C 12,2 C 81 % 0 lf 1023,0 hPa 0,0 l/m 0 min 0 min 0 W/m 29,3 km/h (5 Bft) 100,00 %
09.11.2015 19:42 13,6 C 13,9 C 12,2 C 81 % 0 lf 1023,0 hPa 0,0 l/m 0 min 0 min 0 W/m 27,2 km/h (4 Bft) 100,00 %
09.11.2015 19:44 13,6 C 13,9 C 12,2 C 81 % 0 lf 1023,0 hPa 0,0 l/m 0 min 0 min 0 W/m 23,0 km/h (4 Bft) 97,87 %
09.11.2015 19:46 13,6 C 13,9 C 12,2 C 81 % 0 lf 1023,0 hPa 0,0 l/m 0 min 0 min 0 W/m 23,0 km/h (4 Bft) 100,00 %
09.11.2015 19:48 13,6 C 13,9 C 12,2 C 81 % 0 lf 1023,1 hPa 0,0 l/m 0 min 0 min 0 W/m 27,2 km/h (4 Bft) 97,87 %
09.11.2015 19:50 13,6 C 13,9 C 12,2 C 81 % 0 lf 1023,0 hPa 0,0 l/m 0 min 0 min 0 W/m 29,3 km/h (5 Bft) 97,87 %
09.11.2015 19:52 13,6 C 13,9 C 12,2 C 81 % 0 lf 1022,9 hPa 0,0 l/m 0 min 0 min 0 W/m 27,2 km/h (4 Bft) 100,00 %
09.11.2015 19:54 13,6 C 13,9 C 12,2 C 81 % 0 lf 1023,0 hPa 0,0 l/m 0 min 0 min 0 W/m 25,1 km/h (4 Bft) 97,87 %
09.11.2015 19:56 13,6 C 13,9 C 12,2 C 80 % 0 lf 1023,1 hPa 0,0 l/m 0 min 0 min 0 W/m 31,4 km/h (5 Bft) 97,87 %
09.11.2015 19:58 13,6 C 13,9 C 12,2 C 80 % 0 lf 1023,1 hPa 0,0 l/m 0 min 0 min 0 W/m 35,6 km/h (5 Bft) 95,74 %
09.11.2015 20:00 13,6 C 13,9 C 12,2 C 80 % 0 lf 1023,2 hPa 0,0 l/m 0 min 0 min 0 W/m 31,4 km/h (5 Bft) 97,87 %
09.11.2015 20:02 13,6 C 13,9 C 12,2 C 80 % 0 lf 1023,1 hPa 0,0 l/m 0 min 0 min 0 W/m 41,8 km/h (6 Bft) 97,87 %
09.11.2015 20:04 13,6 C 13,9 C 12,2 C 80 % 0 lf 1023,0 hPa 0,0 l/m 0 min 0 min 0 W/m 25,1 km/h (4 Bft) 97,83 %
09.11.2015 20:06 13,6 C 13,9 C 12,2 C 80 % 0 lf 1023,1 hPa 0,0 l/m 0 min 0 min 0 W/m 31,4 km/h (5 Bft) 97,87 %
09.11.2015 20:08 13,6 C 13,9 C 12,2 C 80 % 0 lf 1023,0 hPa 0,0 l/m 0 min 0 min 0 W/m 46,0 km/h (6 Bft) 95,74 %
09.11.2015 20:10 13,7 C 13,9 C 12,2 C 80 % 0 lf 1023,0 hPa 0,0 l/m 0 min 0 min 0 W/m 27,2 km/h (4 Bft) 97,87 %
09.11.2015 20:12 13,7 C 13,9 C 12,2 C 80 % 0 lf 1023,0 hPa 0,0 l/m 0 min 0 min 0 W/m 31,4 km/h (5 Bft) 93,62 %
09.11.2015 20:14 13,7 C 13,9 C 12,2 C 80 % 0 lf 1022,9 hPa 0,0 l/m 0 min 0 min 0 W/m 27,2 km/h (4 Bft) 97,87 %
09.11.2015 20:16 13,7 C 13,9 C 12,2 C 80 % 0 lf 1022,9 hPa 0,0 l/m 0 min 0 min 0 W/m 29,3 km/h (5 Bft) 97,83 %
09.11.2015 20:18 13,7 C 13,9 C 12,2 C 80 % 0 lf 1022,9 hPa 0,0 l/m 0 min 0 min 0 W/m 25,1 km/h (4 Bft) 93,62 %
09.11.2015 20:20 13,7 C 13,9 C 12,2 C 80 % 0 lf 1022,8 hPa 0,0 l/m 0 min 0 min 0 W/m 37,7 km/h (5 Bft) 93,62 %
09.11.2015 20:22 13,7 C 13,9 C 12,2 C 80 % 0 lf 1022,7 hPa 0,0 l/m 0 min 0 min 0 W/m 25,1 km/h (4 Bft) 97,87 %
09.11.2015 20:24 13,7 C 13,9 C 12,2 C 79 % 0 lf 1022,6 hPa 0,0 l/m 0 min 0 min 0 W/m 39,7 km/h (6 Bft) 97,87 %
09.11.2015 20:26 13,7 C 13,9 C 12,2 C 79 % 0 lf 1022,6 hPa 0,0 l/m 0 min 0 min 0 W/m 35,6 km/h (5 Bft) 95,74 %
09.11.2015 20:28 13,7 C 13,9 C 12,2 C 79 % 0 lf 1022,8 hPa 0,0 l/m 0 min 0 min 0 W/m 35,6 km/h (5 Bft) 97,83 %
09.11.2015 20:30 13,7 C 13,9 C 12,2 C 79 % 0 lf 1022,8 hPa 0,0 l/m 0 min 0 min 0 W/m 37,7 km/h (5 Bft) 93,62 %
09.11.2015 20:32 13,7 C 13,9 C 12,2 C 79 % 0 lf 1022,6 hPa 0,0 l/m 0 min 0 min 0 W/m 20,9 km/h (4 Bft) 94,29 %
09.11.2015 20:34 13,7 C 13,9 C 12,2 C 79 % 0 lf 1022,7 hPa 0,0 l/m 0 min 0 min 0 W/m 31,4 km/h (5 Bft) 95,74 %
09.11.2015 20:36 13,7 C 13,9 C 12,2 C 79 % 0 lf 1022,6 hPa 0,0 l/m 0 min 0 min 0 W/m 29,3 km/h (5 Bft) 91,49 %
09.11.2015 20:38 13,7 C 13,9 C 12,2 C 79 % 0 lf 1022,5 hPa 0,0 l/m 0 min 0 min 0 W/m 23,0 km/h (4 Bft) 98,00 %
09.11.2015 20:40 13,7 C 13,9 C 12,2 C 79 % 0 lf 1022,7 hPa 0,0 l/m 0 min 0 min 0 W/m 20,9 km/h (4 Bft) 93,10 %
09.11.2015 20:42 13,7 C 13,9 C 12,2 C 79 % 0 lf 1022,5 hPa 0,0 l/m 0 min 0 min 0 W/m 37,7 km/h (5 Bft) 97,14 %
09.11.2015 20:44 13,7 C 13,9 C 12,2 C 78 % 0 lf 1022,5 hPa 0,0 l/m 0 min 0 min 0 W/m 23,0 km/h (4 Bft) 95,74 %
09.11.2015 20:46 13,7 C 13,9 C 12,2 C 78 % 0 lf 1022,6 hPa 0,0 l/m 0 min 0 min 0 W/m 31,4 km/h (5 Bft) 95,74 %
09.11.2015 20:48 13,7 C 13,9 C 12,2 C 78 % 0 lf 1022,6 hPa 0,0 l/m 0 min 0 min 0 W/m 37,7 km/h (5 Bft) 97,87 %
09.11.2015 20:50 13,7 C 13,9 C 12,2 C 78 % 0 lf 1022,8 hPa 0,0 l/m 0 min 0 min 0 W/m 27,2 km/h (4 Bft) 93,62 %
09.11.2015 20:52 13,7 C 13,9 C 12,2 C 78 % 0 lf 1022,8 hPa 0,0 l/m 0 min 0 min 0 W/m 23,0 km/h (4 Bft) 97,87 %
09.11.2015 20:54 13,7 C 13,9 C 12,2 C 78 % 0 lf 1022,7 hPa 0,0 l/m 0 min 0 min 0 W/m 25,1 km/h (4 Bft) 93,48 %
09.11.2015 20:56 13,7 C 13,9 C 12,2 C 78 % 0 lf 1022,6 hPa 0,0 l/m 0 min 0 min 0 W/m 37,7 km/h (5 Bft) 100,00 %
09.11.2015 20:58 13,7 C 13,9 C 12,2 C 78 % 0 lf 1022,6 hPa 0,0 l/m 0 min 0 min 0 W/m 39,7 km/h (6 Bft) 97,87 %
09.11.2015 21:00 13,7 C 13,9 C 12,2 C 77 % 0 lf 1022,5 hPa 0,0 l/m 0 min 0 min 0 W/m 37,7 km/h (5 Bft) 89,36 %
09.11.2015 21:02 13,7 C 13,9 C 12,2 C 78 % 0 lf 1022,5 hPa 0,0 l/m 0 min 0 min 0 W/m 37,7 km/h (5 Bft) 93,62 %
09.11.2015 21:04 13,7 C 13,9 C 12,2 C 78 % 0 lf 1022,5 hPa 0,0 l/m 0 min 0 min 0 W/m 39,7 km/h (6 Bft) 91,49 %
09.11.2015 21:06 13,7 C 13,9 C 12,2 C 77 % 0 lf 1022,4 hPa 0,0 l/m 0 min 0 min 0 W/m 31,4 km/h (5 Bft) 91,30 %
09.11.2015 21:08 13,7 C 13,9 C 12,2 C 77 % 0 lf 1022,5 hPa 0,0 l/m 0 min 0 min 0 W/m 33,5 km/h (5 Bft) 93,62 %
09.11.2015 21:10 13,7 C 13,9 C 12,2 C 77 % 0 lf 1022,4 hPa 0,0 l/m 0 min 0 min 0 W/m 31,4 km/h (5 Bft) 87,23 %
09.11.2015 21:12 13,7 C 13,9 C 12,2 C 77 % 0 lf 1022,5 hPa 0,0 l/m 0 min 0 min 0 W/m 41,8 km/h (6 Bft) 91,49 %
09.11.2015 21:14 13,7 C 13,9 C 12,2 C 77 % 0 lf 1022,4 hPa 0,0 l/m 0 min 0 min 0 W/m 27,2 km/h (4 Bft) 91,49 %
09.11.2015 21:16 13,7 C 13,9 C 12,2 C 77 % 0 lf 1022,4 hPa 0,0 l/m 0 min 0 min 0 W/m 35,6 km/h (5 Bft) 91,49 %
09.11.2015 21:18 13,7 C 13,9 C 12,2 C 76 % 0 lf 1022,6 hPa 0,0 l/m 0 min 0 min 0 W/m 37,7 km/h (5 Bft) 93,48 %
09.11.2015 21:20 13,7 C 13,9 C 12,2 C 76 % 0 lf 1022,6 hPa 0,0 l/m 0 min 0 min 0 W/m 20,9 km/h (4 Bft) 93,62 %
09.11.2015 21:22 13,7 C 13,9 C 12,2 C 77 % 0 lf 1022,4 hPa 0,0 l/m 0 min 0 min 0 W/m 27,2 km/h (4 Bft) 89,36 %
09.11.2015 21:24 13,7 C 13,9 C 12,2 C 77 % 0 lf 1022,4 hPa 0,0 l/m 0 min 0 min 0 W/m 31,4 km/h (5 Bft) 93,62 %
09.11.2015 21:26 13,7 C 13,9 C 12,2 C 76 % 0 lf 1022,5 hPa 0,0 l/m 0 min 0 min 0 W/m 25,1 km/h (4 Bft) 89,36 %
09.11.2015 21:28 13,7 C 13,9 C 12,2 C 76 % 0 lf 1022,6 hPa 0,0 l/m 0 min 0 min 0 W/m 41,8 km/h (6 Bft) 93,62 %
09.11.2015 21:30 13,7 C 13,9 C 12,2 C 76 % 0 lf 1022,6 hPa 0,0 l/m 0 min 0 min 0 W/m 31,4 km/h (5 Bft) 91,30 %
09.11.2015 21:32 13,7 C 13,9 C 12,2 C 76 % 0 lf 1022,5 hPa 0,0 l/m 0 min 0 min 0 W/m 27,2 km/h (4 Bft) 93,62 %
09.11.2015 21:34 13,7 C 13,9 C 12,2 C 76 % 0 lf 1022,5 hPa 0,0 l/m 0 min 0 min 0 W/m 29,3 km/h (5 Bft) 93,62 %
09.11.2015 21:36 13,7 C 13,9 C 12,2 C 76 % 0 lf 1022,6 hPa 0,0 l/m 0 min 0 min 0 W/m 37,7 km/h (5 Bft) 93,62 %
09.11.2015 21:38 13,7 C 13,9 C 12,2 C 76 % 0 lf 1022,6 hPa 0,0 l/m 0 min 0 min 0 W/m 33,5 km/h (5 Bft) 93,62 %
09.11.2015 21:40 13,7 C 13,9 C 12,2 C 76 % 0 lf 1022,6 hPa 0,0 l/m 0 min 0 min 0 W/m 35,6 km/h (5 Bft) 95,65 %
09.11.2015 21:42 13,7 C 13,9 C 12,2 C 76 % 0 lf 1022,6 hPa 0,0 l/m 0 min 0 min 0 W/m 31,4 km/h (5 Bft) 93,62 %
09.11.2015 21:44 13,7 C 13,9 C 12,2 C 76 % 0 lf 1022,6 hPa 0,0 l/m 0 min 0 min 0 W/m 27,2 km/h (4 Bft) 89,36 %
09.11.2015 21:46 13,7 C 13,9 C 12,2 C 76 % 0 lf 1022,7 hPa 0,0 l/m 0 min 0 min 0 W/m 41,8 km/h (6 Bft) 95,74 %
09.11.2015 21:48 13,7 C 13,9 C 12,2 C 76 % 0 lf 1022,6 hPa 0,0 l/m 0 min 0 min 0 W/m 33,5 km/h (5 Bft) 97,87 %
09.11.2015 21:50 13,7 C 13,9 C 12,2 C 75 % 0 lf 1022,6 hPa 0,0 l/m 0 min 0 min 0 W/m 33,5 km/h (5 Bft) 100,00 %
09.11.2015 21:52 13,7 C 13,9 C 12,2 C 75 % 0 lf 1022,6 hPa 0,0 l/m 0 min 0 min 0 W/m 31,4 km/h (5 Bft) 100,00 %
09.11.2015 21:54 13,7 C 13,9 C 12,2 C 75 % 0 lf 1022,5 hPa 0,0 l/m 0 min 0 min 0 W/m 35,6 km/h (5 Bft) 97,87 %
09.11.2015 21:56 13,7 C 13,9 C 12,2 C 75 % 0 lf 1022,5 hPa 0,0 l/m 0 min 0 min 0 W/m 33,5 km/h (5 Bft) 91,49 %
09.11.2015 21:58 13,8 C 13,9 C 12,2 C 75 % 0 lf 1022,4 hPa 0,0 l/m 0 min 0 min 0 W/m 39,7 km/h (6 Bft) 100,00 %
09.11.2015 22:00 13,8 C 13,9 C 12,2 C 75 % 0 lf 1022,4 hPa 0,0 l/m 0 min 0 min 0 W/m 39,7 km/h (6 Bft) 97,87 %
09.11.2015 22:02 13,8 C 13,9 C 12,2 C 75 % 0 lf 1022,4 hPa 0,0 l/m 0 min 0 min 0 W/m 35,6 km/h (5 Bft) 96,23 %
09.11.2015 22:04 13,8 C 13,9 C 12,2 C 75 % 0 lf 1022,3 hPa 0,0 l/m 0 min 0 min 0 W/m 43,9 km/h (6 Bft) 100,00 %
09.11.2015 22:06 13,8 C 13,9 C 12,2 C 75 % 0 lf 1022,3 hPa 0,0 l/m 0 min 0 min 0 W/m 35,6 km/h (5 Bft) 95,74 %
09.11.2015 22:08 13,8 C 13,9 C 12,2 C 75 % 0 lf 1022,3 hPa 0,0 l/m 0 min 0 min 0 W/m 29,3 km/h (5 Bft) 97,87 %
09.11.2015 22:10 13,8 C 13,9 C 12,2 C 75 % 0 lf 1022,3 hPa 0,0 l/m 0 min 0 min 0 W/m 29,3 km/h (5 Bft) 100,00 %
09.11.2015 22:12 13,8 C 13,9 C 12,2 C 75 % 0 lf 1022,2 hPa 0,0 l/m 0 min 0 min 0 W/m 35,6 km/h (5 Bft) 100,00 %
09.11.2015 22:14 13,8 C 13,9 C 12,2 C 75 % 0 lf 1022,2 hPa 0,0 l/m 0 min 0 min 0 W/m 37,7 km/h (5 Bft) 100,00 %
09.11.2015 22:16 13,8 C 13,9 C 12,2 C 75 % 0 lf 1022,2 hPa 0,0 l/m 0 min 0 min 0 W/m 35,6 km/h (5 Bft) 100,00 %
09.11.2015 22:18 13,8 C 13,9 C 12,2 C 75 % 0 lf 1022,2 hPa 0,0 l/m 0 min 0 min 0 W/m 29,3 km/h (5 Bft) 95,74 %
09.11.2015 22:20 13,8 C 13,9 C 12,2 C 75 % 0 lf 1022,2 hPa 0,0 l/m 0 min 0 min 0 W/m 37,7 km/h (5 Bft) 100,00 %
09.11.2015 22:22 13,8 C 13,9 C 12,2 C 75 % 0 lf 1022,2 hPa 0,0 l/m 0 min 0 min 0 W/m 37,7 km/h (5 Bft) 100,00 %
09.11.2015 22:24 13,9 C 13,9 C 12,2 C 75 % 0 lf 1022,3 hPa 0,0 l/m 0 min 0 min 0 W/m 35,6 km/h (5 Bft) 100,00 %
09.11.2015 22:26 13,9 C 13,9 C 12,2 C 75 % 0 lf 1022,2 hPa 0,0 l/m 0 min 0 min 0 W/m 41,8 km/h (6 Bft) 97,87 %
09.11.2015 22:28 13,9 C 13,9 C 12,2 C 75 % 0 lf 1022,1 hPa 0,0 l/m 0 min 0 min 0 W/m 48,1 km/h (6 Bft) 97,87 %
09.11.2015 22:30 13,9 C 13,9 C 12,2 C 75 % 0 lf 1022,2 hPa 0,0 l/m 0 min 0 min 0 W/m 43,9 km/h (6 Bft) 100,00 %
09.11.2015 22:32 13,9 C 13,9 C 12,2 C 75 % 0 lf 1022,1 hPa 0,0 l/m 0 min 0 min 0 W/m 31,4 km/h (5 Bft) 97,92 %
09.11.2015 22:34 13,9 C 13,9 C 12,2 C 75 % 0 lf 1022,2 hPa 0,0 l/m 0 min 0 min 0 W/m 46,0 km/h (6 Bft) 95,74 %
09.11.2015 22:36 13,9 C 13,9 C 12,2 C 75 % 0 lf 1022,1 hPa 0,0 l/m 0 min 0 min 0 W/m 31,4 km/h (5 Bft) 97,87 %
09.11.2015 22:38 13,9 C 13,9 C 12,2 C 75 % 0 lf 1022,2 hPa 0,0 l/m 0 min 0 min 0 W/m 48,1 km/h (6 Bft) 97,87 %
09.11.2015 22:40 13,9 C 13,9 C 12,2 C 75 % 0 lf 1022,0 hPa 0,0 l/m 0 min 0 min 0 W/m 39,7 km/h (6 Bft) 100,00 %
09.11.2015 22:42 13,9 C 13,9 C 12,2 C 74 % 0 lf 1022,1 hPa 0,0 l/m 0 min 0 min 0 W/m 27,2 km/h (4 Bft) 100,00 %
09.11.2015 22:44 13,9 C 13,9 C 12,2 C 74 % 0 lf 1022,1 hPa 0,0 l/m 0 min 0 min 0 W/m 33,5 km/h (5 Bft) 100,00 %
09.11.2015 22:46 13,9 C 14,4 C 12,2 C 74 % 0 lf 1022,1 hPa 0,0 l/m 0 min 0 min 0 W/m 43,9 km/h (6 Bft) 97,87 %
09.11.2015 22:48 13,9 C 14,4 C 12,8 C 74 % 0 lf 1022,2 hPa 0,0 l/m 0 min 0 min 0 W/m 37,7 km/h (5 Bft) 97,87 %
09.11.2015 22:50 14,0 C 14,4 C 12,2 C 74 % 0 lf 1022,3 hPa 0,0 l/m 0 min 0 min 0 W/m 43,9 km/h (6 Bft) 97,87 %
09.11.2015 22:52 14,0 C 14,4 C 12,2 C 73 % 0 lf 1022,3 hPa 0,0 l/m 0 min 0 min 0 W/m 46,0 km/h (6 Bft) 100,00 %
09.11.2015 22:54 14,0 C 14,4 C 12,8 C 73 % 0 lf 1022,3 hPa 0,0 l/m 0 min 0 min 0 W/m 39,7 km/h (6 Bft) 100,00 %
09.11.2015 22:56 14,0 C 14,4 C 12,8 C 73 % 0 lf 1022,2 hPa 0,0 l/m 0 min 0 min 0 W/m 35,6 km/h (5 Bft) 97,87 %
09.11.2015 22:58 14,0 C 13,9 C 12,2 C 73 % 0 lf 1022,1 hPa 0,0 l/m 0 min 0 min 0 W/m 50,2 km/h (7 Bft) 100,00 %
09.11.2015 23:00 14,0 C 14,4 C 12,2 C 73 % 0 lf 1022,1 hPa 0,0 l/m 0 min 0 min 0 W/m 39,7 km/h (6 Bft) 95,74 %
09.11.2015 23:02 14,0 C 13,9 C 12,2 C 73 % 0 lf 1022,1 hPa 0,0 l/m 0 min 0 min 0 W/m 33,5 km/h (5 Bft) 95,65 %
09.11.2015 23:04 14,0 C 13,9 C 12,2 C 73 % 0 lf 1022,0 hPa 0,0 l/m 0 min 0 min 0 W/m 35,6 km/h (5 Bft) 97,87 %
09.11.2015 23:06 14,0 C 14,4 C 12,8 C 73 % 0 lf 1022,0 hPa 0,0 l/m 0 min 0 min 0 W/m 39,7 km/h (6 Bft) 97,87 %
09.11.2015 23:08 14,0 C 14,4 C 12,2 C 73 % 0 lf 1021,9 hPa 0,0 l/m 0 min 0 min 0 W/m 37,7 km/h (5 Bft) 95,74 %
09.11.2015 23:10 14,0 C 13,9 C 12,8 C 73 % 0 lf 1021,9 hPa 0,0 l/m 0 min 0 min 0 W/m 37,7 km/h (5 Bft) 95,74 %
09.11.2015 23:12 14,1 C 13,9 C 12,8 C 73 % 0 lf 1021,9 hPa 0,0 l/m 0 min 0 min 0 W/m 37,7 km/h (5 Bft) 95,74 %
09.11.2015 23:14 14,0 C 13,9 C 12,8 C 73 % 0 lf 1021,8 hPa 0,0 l/m 0 min 0 min 0 W/m 35,6 km/h (5 Bft) 93,48 %
09.11.2015 23:16 14,0 C 14,4 C 12,8 C 73 % 0 lf 1021,8 hPa 0,0 l/m 0 min 0 min 0 W/m 41,8 km/h (6 Bft) 97,87 %
09.11.2015 23:18 14,1 C 14,4 C 12,8 C 73 % 0 lf 1021,9 hPa 0,0 l/m 0 min 0 min 0 W/m 50,2 km/h (7 Bft) 95,74 %
09.11.2015 23:20 14,1 C 14,4 C 12,8 C 73 % 0 lf 1021,8 hPa 0,0 l/m 0 min 0 min 0 W/m 43,9 km/h (6 Bft) 97,87 %
09.11.2015 23:22 14,1 C 14,4 C 12,8 C 73 % 0 lf 1021,7 hPa 0,0 l/m 0 min 0 min 0 W/m 43,9 km/h (6 Bft) 97,87 %
09.11.2015 23:24 14,1 C 14,4 C 12,8 C 73 % 0 lf 1021,6 hPa 0,0 l/m 0 min 0 min 0 W/m 43,9 km/h (6 Bft) 97,87 %
09.11.2015 23:26 14,1 C 14,4 C 12,8 C 73 % 0 lf 1021,7 hPa 0,0 l/m 0 min 0 min 0 W/m 41,8 km/h (6 Bft) 97,83 %
09.11.2015 23:28 14,1 C 14,4 C 12,8 C 73 % 0 lf 1021,8 hPa 0,0 l/m 0 min 0 min 0 W/m 46,0 km/h (6 Bft) 95,74 %
09.11.2015 23:30 14,2 C 14,4 C 12,8 C 72 % 0 lf 1021,7 hPa 0,0 l/m 0 min 0 min 0 W/m 37,7 km/h (5 Bft) 95,74 %
09.11.2015 23:32 14,1 C 13,9 C 12,2 C 73 % 0 lf 1021,8 hPa 0,0 l/m 0 min 0 min 0 W/m 41,8 km/h (6 Bft) 100,00 %
09.11.2015 23:34 14,1 C 13,9 C 12,2 C 73 % 0 lf 1021,9 hPa 0,0 l/m 0 min 0 min 0 W/m 43,9 km/h (6 Bft) 97,87 %
09.11.2015 23:36 14,1 C 13,9 C 12,2 C 73 % 0 lf 1021,7 hPa 0,0 l/m 0 min 0 min 0 W/m 31,4 km/h (5 Bft) 95,74 %
09.11.2015 23:38 14,1 C 13,9 C 12,2 C 73 % 0 lf 1021,7 hPa 0,0 l/m 0 min 0 min 0 W/m 60,7 km/h (7 Bft) 95,65 %
09.11.2015 23:40 14,1 C 13,9 C 12,2 C 73 % 0 lf 1021,6 hPa 0,0 l/m 0 min 0 min 0 W/m 41,8 km/h (6 Bft) 97,87 %
09.11.2015 23:42 14,0 C 13,9 C 12,2 C 73 % 0 lf 1021,6 hPa 0,0 l/m 0 min 0 min 0 W/m 33,5 km/h (5 Bft) 97,87 %
09.11.2015 23:44 14,0 C 13,9 C 12,2 C 73 % 0 lf 1021,6 hPa 0,0 l/m 0 min 0 min 0 W/m 39,7 km/h (6 Bft) 95,74 %
09.11.2015 23:46 14,0 C 13,9 C 12,2 C 73 % 0 lf 1021,6 hPa 0,0 l/m 0 min 0 min 0 W/m 39,7 km/h (6 Bft) 91,49 %
09.11.2015 23:48 14,0 C 13,9 C 12,2 C 73 % 0 lf 1021,5 hPa 0,0 l/m 0 min 0 min 0 W/m 37,7 km/h (5 Bft) 93,62 %
09.11.2015 23:50 14,0 C 13,9 C 12,2 C 73 % 0 lf 1021,6 hPa 0,0 l/m 0 min 0 min 0 W/m 41,8 km/h (6 Bft) 93,48 %
09.11.2015 23:52 13,9 C 13,9 C 12,2 C 73 % 0 lf 1021,5 hPa 0,0 l/m 0 min 0 min 0 W/m 35,6 km/h (5 Bft) 95,83 %
09.11.2015 23:54 13,9 C 13,9 C 12,2 C 73 % 0 lf 1021,5 hPa 0,0 l/m 0 min 0 min 0 W/m 35,6 km/h (5 Bft) 93,62 %
09.11.2015 23:56 13,9 C 13,9 C 12,2 C 73 % 0 lf 1021,5 hPa 0,0 l/m 0 min 0 min 0 W/m 31,4 km/h (5 Bft) 91,49 %
09.11.2015 23:58 13,9 C 13,9 C 12,2 C 73 % 0 lf 1021,5 hPa 0,0 l/m 0 min 0 min 0 W/m 29,3 km/h (5 Bft) 87,23 %
_ Min-Zeit 18:52 18:10 08:06 23:30 00:00 00:38 - - - - 06:46 09:18
Minimum _ 13,4 C 13,3 C 11,7 C 72 % 0 lf 1017,2 hPa - - - - 10,5 km/h (2 Bft) 85,11 %
_ Max-Zeit 01:22 01:06 00:00 04:58 02:42 16:02 02:50 08:14 02:34 10:42 23:38 00:08
Maximum _ 17,4 C 17,8 C 15,6 C 96 % 15 lf 1023,3 hPa 0,2 l/m 2 min 2 min 242 W/m 60,7 km/h
W-SW (7 Bft)
100,00 %
Durchschnitt _ 14,9 C 15,1 C 13,2 C 84 % 3 lf 1021,2 hPa #1,2 l/m #2:18 h #1:56 h 107 W/m 28,4 km/h (4 Bft) 96,07 %
© 2015 W. Hausmann